TAP15C SBFL-LPPT

Flight info

Callsign TAP15C
Flight time 10h 27m
Altitude 35000
Route UBROS UM540 ANISE UZ23 ILPIR UZ72 EDNES UN866 USVUR/N0475F370 UN866 DEKON/N0470F380 UN866 AMDOL/N0464F370 UN866 IRANI/N0462F390 UN866 TENPA N866 GOMER/N0452F380 N981 BIMBO DCT NARTA DCT LUVUP
Aircraft A339/H-SADE1E2E3GHIJ3J5M1P2RWXY/LB2D1

Departure

Time 2026-04-17 21:29
Airport Hercílio Luz International Airport (SBFL)

Arrival

Time 2026-04-18 07:57
Airport Lisbon Humberto Delgado Airport (LPPT)
Time Latitude Longitude Altitude Speed Heading
2026-04-17 21:25 -27.67136 -48.54696 37 ft 0 kts 52°
2026-04-17 21:26 -27.67080 -48.54558 42 ft 30 kts 84°
2026-04-17 21:27 -27.67136 -48.54441 41 ft 19 kts 122°
2026-04-17 21:27 -27.67219 -48.54290 40 ft 27 kts 121°
2026-04-17 21:27 -27.67331 -48.54087 39 ft 34 kts 121°
2026-04-17 21:27 -27.67462 -48.53835 38 ft 40 kts 120°
2026-04-17 21:28 -27.67614 -48.53546 36 ft 45 kts 121°
2026-04-17 21:28 -27.67775 -48.53248 35 ft 34 kts 120°
2026-04-17 21:28 -27.67730 -48.53081 34 ft 23 kts 19°
2026-04-17 21:28 -27.67644 -48.53129 35 ft 25 kts 304°
2026-04-17 21:29 -27.67396 -48.53589 35 ft 110 kts 301°
2026-04-17 21:29 -27.66878 -48.54554 43 ft 173 kts 301°
2026-04-17 21:29 -27.66213 -48.55813 532 ft 188 kts 301°
2026-04-17 21:29 -27.65532 -48.57085 1364 ft 192 kts 301°
2026-04-17 21:30 -27.64806 -48.58437 1841 ft 211 kts 301°
2026-04-17 21:30 -27.64023 -48.59897 2258 ft 230 kts 301°
2026-04-17 21:30 -27.63170 -48.61489 2754 ft 242 kts 301°
2026-04-17 21:30 -27.62294 -48.63126 3426 ft 244 kts 301°
2026-04-17 21:31 -27.61284 -48.64672 4066 ft 247 kts 311°
2026-04-17 21:31 -27.60063 -48.66054 4723 ft 249 kts 319°
2026-04-17 21:31 -27.58673 -48.67224 5352 ft 252 kts 328°
2026-04-17 21:31 -27.57098 -48.68103 5833 ft 255 kts 340°
2026-04-17 21:32 -27.55382 -48.68608 5975 ft 256 kts 352°
2026-04-17 21:32 -27.53624 -48.68702 6003 ft 256 kts
2026-04-17 21:32 -27.51865 -48.68405 6002 ft 257 kts 15°
2026-04-17 21:32 -27.50178 -48.67735 6003 ft 256 kts 26°
2026-04-17 21:33 -27.48644 -48.66737 6000 ft 255 kts 36°
2026-04-17 21:33 -27.47298 -48.65441 5999 ft 256 kts 47°
2026-04-17 21:33 -27.46180 -48.63879 5999 ft 256 kts 58°
2026-04-17 21:33 -27.45344 -48.62124 5999 ft 255 kts 68°
2026-04-17 21:34 -27.44807 -48.60216 6001 ft 255 kts 79°
2026-04-17 21:34 -27.44595 -48.58239 6001 ft 255 kts 90°
2026-04-17 21:34 -27.45149 -48.54339 5998 ft 255 kts 111°
2026-04-17 21:35 -27.45902 -48.52525 6001 ft 255 kts 122°
2026-04-17 21:35 -27.46936 -48.50907 5998 ft 255 kts 133°
2026-04-17 21:35 -27.48059 -48.49341 6006 ft 261 kts 120°
2026-04-17 21:35 -27.48596 -48.47406 6531 ft 264 kts 96°
2026-04-17 21:36 -27.48415 -48.45345 7042 ft 269 kts 73°
2026-04-17 21:36 -27.47524 -48.43524 7649 ft 271 kts 50°
2026-04-17 21:36 -27.46043 -48.42217 8219 ft 275 kts 26°
2026-04-17 21:36 -27.44196 -48.41680 8849 ft 276 kts
2026-04-17 21:37 -27.42298 -48.41948 9471 ft 278 kts 346°
2026-04-17 21:37 -27.40422 -48.42538 10082 ft 281 kts 345°
2026-04-17 21:37 -27.39144 -48.42834 10293 ft 290 kts 353°
2026-04-17 21:37 -27.37077 -48.42748 10483 ft 308 kts 11°
2026-04-17 21:38 -27.34959 -48.42051 10662 ft 325 kts 21°
2026-04-17 21:38 -27.32871 -48.41016 11146 ft 330 kts 26°
2026-04-17 21:38 -27.30814 -48.39858 11687 ft 333 kts 27°
2026-04-17 21:38 -27.28071 -48.38269 12418 ft 336 kts 27°
2026-04-17 21:39 -27.25982 -48.37074 12960 ft 339 kts 27°
2026-04-17 21:39 -27.24577 -48.36280 13301 ft 341 kts 27°
2026-04-17 21:39 -27.21728 -48.34694 14009 ft 344 kts 26°
2026-04-17 21:39 -27.20295 -48.33904 14340 ft 346 kts 26°
2026-04-17 21:40 -27.18130 -48.32715 14842 ft 348 kts 26°
2026-04-17 21:40 -27.15938 -48.31513 15355 ft 351 kts 26°
2026-04-17 21:40 -27.13740 -48.30310 15843 ft 354 kts 26°
2026-04-17 21:40 -27.11526 -48.29097 16323 ft 356 kts 26°
2026-04-17 21:41 -27.09287 -48.27871 16799 ft 359 kts 26°
2026-04-17 21:41 -27.07042 -48.26641 17263 ft 361 kts 26°
2026-04-17 21:41 -27.04802 -48.25414 17717 ft 364 kts 26°
2026-04-17 21:41 -27.02526 -48.24168 18171 ft 366 kts 26°
2026-04-17 21:42 -27.00225 -48.22907 18624 ft 368 kts 26°
2026-04-17 21:42 -26.97918 -48.21644 19065 ft 371 kts 26°
2026-04-17 21:42 -26.95586 -48.20367 19529 ft 373 kts 26°
2026-04-17 21:42 -26.93249 -48.19088 19957 ft 376 kts 26°
2026-04-17 21:43 -26.90885 -48.17795 20397 ft 378 kts 26°
2026-04-17 21:43 -26.88518 -48.16500 20826 ft 381 kts 26°
2026-04-17 21:43 -26.86134 -48.15196 21253 ft 383 kts 26°
2026-04-17 21:43 -26.83757 -48.13897 21671 ft 386 kts 26°
2026-04-17 21:44 -26.81341 -48.12577 22090 ft 388 kts 26°
2026-04-17 21:44 -26.78901 -48.11244 22506 ft 391 kts 26°
2026-04-17 21:44 -26.76456 -48.09910 22916 ft 393 kts 26°
2026-04-17 21:44 -26.73986 -48.08562 23324 ft 395 kts 26°
2026-04-17 21:45 -26.71511 -48.07212 23736 ft 398 kts 26°
2026-04-17 21:45 -26.69010 -48.05848 24124 ft 400 kts 26°
2026-04-17 21:45 -26.66540 -48.04500 24521 ft 403 kts 26°
2026-04-17 21:45 -26.64020 -48.03127 24896 ft 405 kts 26°
2026-04-17 21:46 -26.61473 -48.01739 25286 ft 407 kts 26°
2026-04-17 21:46 -26.58924 -48.00352 25653 ft 410 kts 26°
2026-04-17 21:46 -26.56350 -47.98950 26018 ft 412 kts 26°
2026-04-17 21:46 -26.53772 -47.97548 26375 ft 414 kts 26°
2026-04-17 21:47 -26.51177 -47.96137 26722 ft 416 kts 26°
2026-04-17 21:47 -26.48595 -47.94733 27066 ft 419 kts 26°
2026-04-17 21:47 -26.45975 -47.93310 27406 ft 421 kts 26°
2026-04-17 21:47 -26.43331 -47.91875 27722 ft 423 kts 26°
2026-04-17 21:48 -26.40684 -47.90438 28051 ft 425 kts 26°
2026-04-17 21:48 -26.38014 -47.88990 28367 ft 427 kts 26°
2026-04-17 21:48 -26.35342 -47.87541 28670 ft 429 kts 26°
2026-04-17 21:48 -26.32657 -47.86086 28978 ft 431 kts 25°
2026-04-17 21:49 -26.29948 -47.84618 29260 ft 433 kts 25°
2026-04-17 21:49 -26.27239 -47.83152 29537 ft 435 kts 25°
2026-04-17 21:49 -26.24543 -47.81692 29818 ft 437 kts 25°
2026-04-17 21:49 -26.21810 -47.80214 30115 ft 439 kts 25°
2026-04-17 21:50 -26.19053 -47.78724 30402 ft 440 kts 25°
2026-04-17 21:50 -26.16295 -47.77233 30689 ft 442 kts 25°
2026-04-17 21:50 -26.13519 -47.75716 30929 ft 445 kts 27°
2026-04-17 21:51 -26.08287 -47.72070 31002 ft 445 kts 35°
2026-04-17 21:51 -26.03268 -47.68042 31004 ft 445 kts 36°
2026-04-17 21:52 -25.98287 -47.64035 30998 ft 445 kts 36°
2026-04-17 21:52 -25.93261 -47.60026 31002 ft 445 kts 36°
2026-04-17 21:53 -25.88226 -47.56028 30996 ft 445 kts 36°
2026-04-17 21:53 -25.83190 -47.52037 31004 ft 445 kts 36°
2026-04-17 21:54 -25.78185 -47.48075 30995 ft 445 kts 36°
2026-04-17 21:54 -25.73147 -47.44092 31003 ft 445 kts 36°
2026-04-17 21:55 -25.68107 -47.40112 30997 ft 445 kts 36°
2026-04-17 21:55 -25.63066 -47.36135 31002 ft 445 kts 36°
2026-04-17 21:56 -25.58031 -47.32167 30998 ft 445 kts 36°
2026-04-17 21:56 -25.53015 -47.28221 31002 ft 445 kts 36°
2026-04-17 21:57 -25.47970 -47.24255 31002 ft 445 kts 36°
2026-04-17 21:57 -25.42956 -47.20320 31001 ft 445 kts 36°
2026-04-17 21:58 -25.37909 -47.16361 31000 ft 445 kts 36°
2026-04-17 21:58 -25.32869 -47.12413 31001 ft 445 kts 36°
2026-04-17 21:59 -25.27819 -47.08461 31004 ft 445 kts 36°
2026-04-17 21:59 -25.22769 -47.04512 30998 ft 445 kts 36°
2026-04-17 22:00 -25.17750 -47.00593 31001 ft 445 kts 36°
2026-04-17 22:00 -25.12638 -46.96749 31000 ft 445 kts 32°
2026-04-17 22:01 -25.07339 -46.93222 30998 ft 445 kts 31°
2026-04-17 22:01 -25.02018 -46.89734 30996 ft 445 kts 31°
2026-04-17 22:02 -24.96729 -46.86281 31000 ft 445 kts 31°
2026-04-17 22:02 -24.91404 -46.82805 30995 ft 445 kts 31°
2026-04-17 22:03 -24.86079 -46.79331 31003 ft 445 kts 31°
2026-04-17 22:03 -24.80754 -46.75859 30995 ft 445 kts 31°
2026-04-17 22:04 -24.75430 -46.72391 30999 ft 445 kts 30°
2026-04-17 22:04 -24.70150 -46.68954 31000 ft 445 kts 30°
2026-04-17 22:05 -24.64823 -46.65490 31000 ft 445 kts 30°
2026-04-17 22:05 -24.59233 -46.62609 31004 ft 445 kts 17°
2026-04-17 22:06 -24.53154 -46.61415 30996 ft 445 kts
2026-04-17 22:06 -24.47035 -46.60734 31000 ft 445 kts
2026-04-17 22:07 -24.40883 -46.59965 30997 ft 445 kts
2026-04-17 22:07 -24.34740 -46.59132 31002 ft 445 kts
2026-04-17 22:08 -24.28597 -46.58282 30996 ft 445 kts
2026-04-17 22:08 -24.22456 -46.57433 31000 ft 445 kts
2026-04-17 22:09 -24.16368 -46.56595 30995 ft 445 kts
2026-04-17 22:09 -24.10226 -46.55752 31001 ft 445 kts
2026-04-17 22:10 -24.04084 -46.54910 31001 ft 445 kts
2026-04-17 22:10 -23.97942 -46.54068 30995 ft 445 kts
2026-04-17 22:11 -23.91817 -46.53230 31003 ft 447 kts
2026-04-17 22:11 -23.85675 -46.51937 31003 ft 450 kts 15°
2026-04-17 22:12 -23.79649 -46.50089 31001 ft 450 kts 16°
2026-04-17 22:12 -23.73617 -46.48251 31001 ft 450 kts 15°
2026-04-17 22:13 -23.67608 -46.46467 30997 ft 450 kts 15°
2026-04-17 22:13 -23.61565 -46.44689 31003 ft 450 kts 15°
2026-04-17 22:14 -23.55522 -46.42916 30996 ft 450 kts 15°
2026-04-17 22:14 -23.49475 -46.41145 31004 ft 450 kts 15°
2026-04-17 22:15 -23.43471 -46.39383 31001 ft 450 kts 15°
2026-04-17 22:15 -23.37411 -46.37657 30996 ft 450 kts 13°
2026-04-17 22:16 -23.31293 -46.36200 31003 ft 450 kts 12°
2026-04-17 22:16 -23.25153 -46.34783 30999 ft 452 kts 12°
2026-04-17 22:17 -23.19033 -46.33347 31004 ft 450 kts 12°
2026-04-17 22:17 -23.12944 -46.31905 31000 ft 450 kts 12°
2026-04-17 22:18 -23.06807 -46.30450 30996 ft 451 kts 12°
2026-04-17 22:18 -23.00683 -46.28999 31000 ft 451 kts 12°
2026-04-17 22:19 -22.94537 -46.27544 31001 ft 452 kts 12°
2026-04-17 22:19 -22.88444 -46.26102 31003 ft 452 kts 12°
2026-04-17 22:20 -22.82291 -46.24648 30998 ft 450 kts 12°
2026-04-17 22:20 -22.76244 -46.22822 31003 ft 451 kts 21°
2026-04-17 22:21 -22.70720 -46.19629 31003 ft 451 kts 35°
2026-04-17 22:21 -22.65816 -46.15454 30997 ft 453 kts 40°
2026-04-17 22:22 -22.60995 -46.11054 30998 ft 452 kts 40°
2026-04-17 22:22 -22.56171 -46.06738 31001 ft 450 kts 39°
2026-04-17 22:23 -22.51317 -46.02445 31001 ft 451 kts 39°
2026-04-17 22:23 -22.46459 -45.98163 31000 ft 450 kts 39°
2026-04-17 22:24 -22.41631 -45.93911 31001 ft 451 kts 39°
2026-04-17 22:24 -22.36768 -45.89631 30999 ft 451 kts 39°
2026-04-17 22:25 -22.31904 -45.85354 31002 ft 450 kts 39°
2026-04-17 22:25 -22.27043 -45.81085 31000 ft 451 kts 39°
2026-04-17 22:26 -22.22189 -45.76876 31002 ft 450 kts 39°
2026-04-17 22:26 -22.17277 -45.72639 30994 ft 451 kts 39°
2026-04-17 22:27 -22.12384 -45.68419 30998 ft 451 kts 39°
2026-04-17 22:27 -22.07519 -45.64222 30997 ft 451 kts 39°
2026-04-17 22:28 -22.02625 -45.60004 31000 ft 450 kts 39°
2026-04-17 22:28 -21.97731 -45.55790 30995 ft 452 kts 39°
2026-04-17 22:29 -21.92815 -45.51562 31001 ft 452 kts 39°
2026-04-17 22:29 -21.87910 -45.47347 30999 ft 451 kts 39°
2026-04-17 22:30 -21.83038 -45.43166 30999 ft 451 kts 39°
2026-04-17 22:30 -21.78134 -45.38960 31000 ft 451 kts 38°
2026-04-17 22:31 -21.73228 -45.34756 30997 ft 451 kts 38°
2026-04-17 22:31 -21.68322 -45.30556 31000 ft 451 kts 38°
2026-04-17 22:32 -21.63448 -45.26389 31000 ft 451 kts 38°
2026-04-17 22:32 -21.58537 -45.22192 31000 ft 451 kts 38°
2026-04-17 22:33 -21.53610 -45.17984 31269 ft 454 kts 38°
2026-04-17 22:33 -21.51140 -45.15876 31560 ft 456 kts 38°
2026-04-17 22:33 -21.48655 -45.13756 31874 ft 457 kts 38°
2026-04-17 22:33 -21.46152 -45.11621 32140 ft 459 kts 38°
2026-04-17 22:34 -21.43685 -45.09517 32408 ft 461 kts 38°
2026-04-17 22:34 -21.41175 -45.07379 32656 ft 462 kts 38°
2026-04-17 22:34 -21.38648 -45.05228 32867 ft 464 kts 38°
2026-04-17 22:34 -21.36121 -45.03077 33008 ft 465 kts 38°
2026-04-17 22:35 -21.33574 -45.00911 33001 ft 466 kts 38°
2026-04-17 22:35 -21.28491 -44.96590 33001 ft 465 kts 38°
2026-04-17 22:36 -21.23452 -44.92311 33000 ft 465 kts 38°
2026-04-17 22:36 -21.18393 -44.88019 33001 ft 465 kts 38°
2026-04-17 22:37 -21.13326 -44.83722 32999 ft 465 kts 38°
2026-04-17 22:37 -21.08255 -44.79426 33000 ft 465 kts 38°
2026-04-17 22:38 -21.03167 -44.75153 33001 ft 465 kts 37°
2026-04-17 22:38 -20.97944 -44.71136 33000 ft 466 kts 35°
2026-04-17 22:39 -20.92641 -44.67151 32999 ft 466 kts 35°
2026-04-17 22:39 -20.84743 -44.61163 32999 ft 466 kts 35°
2026-04-17 22:40 -20.79461 -44.57143 32999 ft 466 kts 35°
2026-04-17 22:40 -20.74189 -44.53130 33000 ft 467 kts 35°
2026-04-17 22:41 -20.68888 -44.49096 32998 ft 466 kts 35°
2026-04-17 22:41 -20.63620 -44.45090 33000 ft 466 kts 35°
2026-04-17 22:42 -20.58379 -44.41109 33001 ft 466 kts 35°
2026-04-17 22:42 -20.53103 -44.37106 33000 ft 465 kts 35°
2026-04-17 22:43 -20.47819 -44.33098 32999 ft 467 kts 35°
2026-04-17 22:43 -20.42539 -44.29091 32999 ft 466 kts 36°
2026-04-17 22:44 -20.37359 -44.25012 33001 ft 466 kts 37°
2026-04-17 22:44 -20.32173 -44.20872 33000 ft 464 kts 37°
2026-04-17 22:45 -20.26996 -44.16755 33000 ft 465 kts 36°
2026-04-17 22:45 -20.21822 -44.12657 33000 ft 464 kts 36°
2026-04-17 22:46 -20.16636 -44.08555 33000 ft 464 kts 36°
2026-04-17 22:46 -20.11478 -44.04479 33001 ft 465 kts 36°
2026-04-17 22:47 -20.06273 -44.00369 33000 ft 468 kts 36°
2026-04-17 22:47 -20.01038 -43.96248 33000 ft 467 kts 36°
2026-04-17 22:48 -19.95822 -43.92145 33001 ft 467 kts 36°
2026-04-17 22:48 -19.90647 -43.88077 33001 ft 464 kts 36°
2026-04-17 22:49 -19.85458 -43.84002 32999 ft 464 kts 36°
2026-04-17 22:49 -19.80173 -43.80051 32999 ft 464 kts 34°
2026-04-17 22:50 -19.74817 -43.76213 33000 ft 464 kts 33°
2026-04-17 22:50 -19.69507 -43.72399 32999 ft 465 kts 34°
2026-04-17 22:51 -19.64160 -43.68542 32999 ft 464 kts 34°
2026-04-17 22:51 -19.58834 -43.64697 32999 ft 465 kts 34°
2026-04-17 22:52 -19.53470 -43.60826 32999 ft 467 kts 34°
2026-04-17 22:52 -19.48077 -43.56937 33000 ft 470 kts 34°
2026-04-17 22:53 -19.42724 -43.53080 33000 ft 467 kts 34°
2026-04-17 22:53 -19.37328 -43.49196 32999 ft 469 kts 34°
2026-04-17 22:54 -19.31889 -43.45437 32999 ft 463 kts 28°
2026-04-17 22:54 -19.25949 -43.42782 33000 ft 463 kts 17°
2026-04-17 22:55 -19.19823 -43.40767 33000 ft 466 kts 17°
2026-04-17 22:55 -19.13676 -43.38694 33000 ft 463 kts 17°
2026-04-17 22:56 -19.07542 -43.36560 33000 ft 465 kts 18°
2026-04-17 22:56 -19.01410 -43.34407 32998 ft 463 kts 18°
2026-04-17 22:57 -18.95332 -43.32272 33000 ft 463 kts 18°
2026-04-17 22:57 -18.89228 -43.30131 33001 ft 463 kts 18°
2026-04-17 22:58 -18.83112 -43.27990 33000 ft 463 kts 18°
2026-04-17 22:58 -18.76991 -43.25850 33000 ft 464 kts 18°
2026-04-17 22:59 -18.70865 -43.23710 33001 ft 464 kts 18°
2026-04-17 22:59 -18.64772 -43.21607 33000 ft 464 kts 17°
2026-04-17 23:00 -18.58615 -43.19582 33000 ft 464 kts 17°
2026-04-17 23:00 -18.52440 -43.17566 33001 ft 464 kts 17°
2026-04-17 23:01 -18.46270 -43.15544 33000 ft 463 kts 17°
2026-04-17 23:01 -18.40145 -43.13533 32999 ft 465 kts 17°
2026-04-17 23:02 -18.34050 -43.11288 32999 ft 463 kts 20°
2026-04-17 23:02 -18.27999 -43.08913 33000 ft 464 kts 20°
2026-04-17 23:03 -18.21964 -43.06530 33000 ft 464 kts 20°
2026-04-17 23:03 -18.15915 -43.04146 32999 ft 464 kts 20°
2026-04-17 23:04 -18.09887 -43.01774 33000 ft 469 kts 20°
2026-04-17 23:04 -18.03812 -42.99387 33000 ft 464 kts 20°
2026-04-17 23:05 -17.97731 -42.97000 33000 ft 466 kts 20°
2026-04-17 23:05 -17.91674 -42.94626 33000 ft 465 kts 20°
2026-04-17 23:06 -17.85648 -42.92266 33000 ft 466 kts 20°
2026-04-17 23:06 -17.79579 -42.89890 33000 ft 466 kts 20°
2026-04-17 23:07 -17.73518 -42.87519 33000 ft 464 kts 20°
2026-04-17 23:07 -17.67457 -42.85150 33000 ft 465 kts 20°
2026-04-17 23:08 -17.61381 -42.82779 33000 ft 465 kts 20°
2026-04-17 23:08 -17.55341 -42.80422 33000 ft 464 kts 20°
2026-04-17 23:09 -17.49340 -42.78084 33001 ft 464 kts 20°
2026-04-17 23:09 -17.43292 -42.75730 33001 ft 463 kts 20°
2026-04-17 23:10 -17.37243 -42.73380 33000 ft 464 kts 20°
2026-04-17 23:10 -17.31187 -42.71028 32999 ft 464 kts 20°
2026-04-17 23:11 -17.25169 -42.68693 33000 ft 464 kts 20°
2026-04-17 23:11 -17.19121 -42.66347 33000 ft 463 kts 20°
2026-04-17 23:12 -17.13076 -42.64005 32999 ft 463 kts 20°
2026-04-17 23:12 -17.07087 -42.61686 33000 ft 462 kts 20°
2026-04-17 23:13 -17.01060 -42.59353 32999 ft 462 kts 20°
2026-04-17 23:13 -16.95025 -42.57020 32999 ft 463 kts 20°
2026-04-17 23:14 -16.89004 -42.54693 32999 ft 462 kts 20°
2026-04-17 23:14 -16.82963 -42.52360 32998 ft 464 kts 20°
2026-04-17 23:15 -16.76911 -42.50025 33000 ft 463 kts 20°
2026-04-17 23:15 -16.70901 -42.47706 33000 ft 463 kts 20°
2026-04-17 23:16 -16.64875 -42.45383 33000 ft 461 kts 20°
2026-04-17 23:16 -16.58845 -42.43057 32999 ft 461 kts 20°
2026-04-17 23:17 -16.52817 -42.40732 33000 ft 462 kts 20°
2026-04-17 23:17 -16.46810 -42.38421 32999 ft 465 kts 20°
2026-04-17 23:18 -16.40752 -42.36094 33001 ft 464 kts 20°
2026-04-17 23:18 -16.34705 -42.33772 33000 ft 463 kts 20°
2026-04-17 23:19 -16.28667 -42.31454 33001 ft 462 kts 20°
2026-04-17 23:19 -16.22676 -42.29156 33000 ft 462 kts 20°
2026-04-17 23:20 -16.16645 -42.26841 33001 ft 462 kts 21°
2026-04-17 23:20 -16.10811 -42.24064 33000 ft 463 kts 26°
2026-04-17 23:21 -16.05044 -42.21088 33001 ft 462 kts 26°
2026-04-17 23:21 -15.99307 -42.18149 33000 ft 463 kts 26°
2026-04-17 23:22 -15.93519 -42.15209 33001 ft 463 kts 26°
2026-04-17 23:22 -15.87719 -42.12271 33000 ft 464 kts 26°
2026-04-17 23:23 -15.81916 -42.09333 33000 ft 465 kts 26°
2026-04-17 23:23 -15.76144 -42.06414 33000 ft 464 kts 26°
2026-04-17 23:24 -15.70335 -42.03478 33001 ft 464 kts 26°
2026-04-17 23:24 -15.64528 -42.00547 33000 ft 464 kts 26°
2026-04-17 23:25 -15.58721 -41.97617 33001 ft 465 kts 26°
2026-04-17 23:25 -15.52952 -41.94708 33000 ft 464 kts 26°
2026-04-17 23:26 -15.47139 -41.91778 33000 ft 464 kts 26°
2026-04-17 23:26 -15.41338 -41.88856 33000 ft 465 kts 26°
2026-04-17 23:27 -15.35515 -41.85925 33000 ft 465 kts 26°
2026-04-17 23:27 -15.29691 -41.82995 32999 ft 465 kts 26°
2026-04-17 23:28 -15.23908 -41.80087 33000 ft 465 kts 26°
2026-04-17 23:28 -15.18079 -41.77158 33000 ft 465 kts 26°
2026-04-17 23:29 -15.12249 -41.74230 33000 ft 465 kts 26°
2026-04-17 23:29 -15.06425 -41.71307 33000 ft 465 kts 26°
2026-04-17 23:30 -15.00608 -41.68390 33001 ft 464 kts 26°
2026-04-17 23:30 -14.94841 -41.65498 33001 ft 463 kts 26°
2026-04-17 23:31 -14.89044 -41.62594 33000 ft 463 kts 26°
2026-04-17 23:31 -14.83249 -41.59692 33001 ft 463 kts 26°
2026-04-17 23:32 -14.77464 -41.56797 32998 ft 463 kts 26°
2026-04-17 23:32 -14.71706 -41.53917 33000 ft 463 kts 26°
2026-04-17 23:33 -14.65898 -41.51014 32999 ft 464 kts 26°
2026-04-17 23:33 -14.60094 -41.48115 33000 ft 464 kts 26°
2026-04-17 23:34 -14.54287 -41.45216 33000 ft 464 kts 26°
2026-04-17 23:34 -14.48520 -41.42338 33000 ft 463 kts 26°
2026-04-17 23:35 -14.42719 -41.39445 33001 ft 463 kts 26°
2026-04-17 23:35 -14.36916 -41.36552 33001 ft 463 kts 26°
2026-04-17 23:36 -14.31153 -41.33682 33000 ft 462 kts 26°
2026-04-17 23:36 -14.25354 -41.30795 33000 ft 463 kts 26°
2026-04-17 23:37 -14.19556 -41.27910 33000 ft 461 kts 26°
2026-04-17 23:37 -14.13780 -41.25037 33000 ft 461 kts 26°
2026-04-17 23:38 -14.08015 -41.22172 33000 ft 461 kts 26°
2026-04-17 23:38 -14.02231 -41.19300 33000 ft 461 kts 26°
2026-04-17 23:39 -13.96483 -41.16446 33000 ft 462 kts 26°
2026-04-17 23:39 -13.90679 -41.13566 33000 ft 461 kts 26°
2026-04-17 23:40 -13.84908 -41.10704 33001 ft 461 kts 26°
2026-04-17 23:40 -13.79130 -41.07841 33000 ft 461 kts 26°
2026-04-17 23:41 -13.73389 -41.04998 32999 ft 461 kts 26°
2026-04-17 23:41 -13.67610 -41.02137 33000 ft 461 kts 26°
2026-04-17 23:42 -13.61822 -40.99274 33000 ft 462 kts 26°
2026-04-17 23:42 -13.56063 -40.96427 33000 ft 461 kts 26°
2026-04-17 23:43 -13.50276 -40.93566 33000 ft 462 kts 26°
2026-04-17 23:43 -13.44485 -40.90705 32999 ft 462 kts 26°
2026-04-17 23:44 -13.38690 -40.87845 33000 ft 462 kts 26°
2026-04-17 23:44 -13.32897 -40.84987 32999 ft 463 kts 26°
2026-04-17 23:45 -13.24234 -40.80716 32999 ft 463 kts 26°
2026-04-17 23:46 -13.18439 -40.77861 33000 ft 462 kts 26°
2026-04-17 23:46 -13.12652 -40.75011 32999 ft 461 kts 26°
2026-04-17 23:47 -13.06910 -40.72182 33000 ft 461 kts 26°
2026-04-17 23:47 -13.01132 -40.69337 33000 ft 461 kts 26°
2026-04-17 23:48 -12.95352 -40.66493 33000 ft 461 kts 26°
2026-04-17 23:48 -12.89582 -40.63656 33000 ft 461 kts 26°
2026-04-17 23:49 -12.83830 -40.60829 33000 ft 462 kts 26°
2026-04-17 23:49 -12.78042 -40.57985 33000 ft 461 kts 26°
2026-04-17 23:50 -12.72259 -40.55145 33000 ft 461 kts 26°
2026-04-17 23:50 -12.66471 -40.52307 33000 ft 461 kts 26°
2026-04-17 23:51 -12.60708 -40.49482 33000 ft 463 kts 26°
2026-04-17 23:51 -12.54903 -40.46639 32999 ft 462 kts 26°
2026-04-17 23:52 -12.49114 -40.43805 33000 ft 461 kts 26°
2026-04-17 23:52 -12.43328 -40.40973 33000 ft 461 kts 26°
2026-04-17 23:53 -12.37583 -40.38163 33000 ft 461 kts 26°
2026-04-17 23:53 -12.31806 -40.35339 33001 ft 461 kts 26°
2026-04-17 23:54 -12.26019 -40.32511 33001 ft 461 kts 26°
2026-04-17 23:54 -12.20233 -40.29685 32999 ft 461 kts 26°
2026-04-17 23:55 -12.14482 -40.26878 33000 ft 461 kts 25°
2026-04-17 23:55 -12.08693 -40.24054 33000 ft 461 kts 25°
2026-04-17 23:56 -12.02904 -40.21231 32999 ft 461 kts 25°
2026-04-17 23:56 -11.97113 -40.18408 32999 ft 461 kts 25°
2026-04-17 23:57 -11.91353 -40.15602 32999 ft 462 kts 25°
2026-04-17 23:57 -11.85551 -40.12777 33000 ft 462 kts 25°
2026-04-17 23:58 -11.79753 -40.09955 33000 ft 461 kts 25°
2026-04-17 23:58 -11.73962 -40.07138 33000 ft 461 kts 25°
2026-04-17 23:59 -11.68208 -40.04339 32998 ft 461 kts 25°
2026-04-17 23:59 -11.62370 -40.01501 33000 ft 462 kts 25°
2026-04-18 00:00 -11.56623 -39.98709 33000 ft 461 kts 25°
2026-04-18 00:00 -11.50826 -39.95894 33000 ft 461 kts 25°
2026-04-18 00:01 -11.45033 -39.93081 33001 ft 461 kts 25°
2026-04-18 00:01 -11.39236 -39.90267 33000 ft 461 kts 25°
2026-04-18 00:02 -11.33478 -39.87473 33000 ft 461 kts 25°
2026-04-18 00:02 -11.27683 -39.84663 33000 ft 461 kts 25°
2026-04-18 00:03 -11.21886 -39.81853 33000 ft 461 kts 25°
2026-04-18 00:03 -11.16093 -39.79047 33000 ft 461 kts 25°
2026-04-18 00:04 -11.10341 -39.76261 33000 ft 461 kts 25°
2026-04-18 00:04 -11.04550 -39.73459 33000 ft 461 kts 25°
2026-04-18 00:05 -10.98760 -39.70657 32999 ft 461 kts 25°
2026-04-18 00:05 -10.93000 -39.67871 33000 ft 461 kts 25°
2026-04-18 00:06 -10.90317 -39.66574 33000 ft 461 kts 25°
2026-04-18 00:06 -10.85625 -39.64306 32999 ft 461 kts 25°
2026-04-18 00:07 -10.79863 -39.61522 33186 ft 462 kts 25°
2026-04-18 00:07 -10.76947 -39.60113 33362 ft 463 kts 25°
2026-04-18 00:07 -10.74029 -39.58704 33515 ft 464 kts 25°
2026-04-18 00:07 -10.71109 -39.57294 33701 ft 464 kts 25°
2026-04-18 00:08 -10.68200 -39.55890 33883 ft 464 kts 25°
2026-04-18 00:08 -10.65282 -39.54482 34069 ft 464 kts 25°
2026-04-18 00:08 -10.62366 -39.53075 34261 ft 463 kts 25°
2026-04-18 00:08 -10.59462 -39.51674 34434 ft 463 kts 25°
2026-04-18 00:09 -10.56588 -39.50288 34619 ft 463 kts 25°
2026-04-18 00:09 -10.53687 -39.48889 34788 ft 462 kts 25°
2026-04-18 00:09 -10.50778 -39.47487 34973 ft 462 kts 25°
2026-04-18 00:09 -10.47870 -39.46085 35148 ft 462 kts 25°
2026-04-18 00:10 -10.44974 -39.44690 35328 ft 461 kts 25°
2026-04-18 00:10 -10.42072 -39.43292 35516 ft 461 kts 25°
2026-04-18 00:10 -10.39183 -39.41899 35682 ft 460 kts 25°
2026-04-18 00:10 -10.36288 -39.40501 35852 ft 460 kts 25°
2026-04-18 00:11 -10.33434 -39.39123 36020 ft 460 kts 25°
2026-04-18 00:11 -10.30514 -39.37713 36174 ft 459 kts 25°
2026-04-18 00:11 -10.27662 -39.36336 36329 ft 460 kts 25°
2026-04-18 00:11 -10.24768 -39.34940 36451 ft 460 kts 25°
2026-04-18 00:12 -10.21877 -39.33547 36552 ft 461 kts 25°
2026-04-18 00:12 -10.18976 -39.32153 36726 ft 460 kts 25°
2026-04-18 00:12 -10.16089 -39.30766 36888 ft 460 kts 25°
2026-04-18 00:12 -10.13194 -39.29375 37049 ft 460 kts 25°
2026-04-18 00:13 -10.10300 -39.27985 37174 ft 460 kts 25°
2026-04-18 00:13 -10.07416 -39.26601 37326 ft 459 kts 25°
2026-04-18 00:13 -10.04562 -39.25230 37466 ft 459 kts 25°
2026-04-18 00:13 -10.01679 -39.23845 37586 ft 459 kts 25°
2026-04-18 00:14 -9.98786 -39.22457 37729 ft 459 kts 25°
2026-04-18 00:14 -9.95894 -39.21069 37852 ft 459 kts 25°
2026-04-18 00:14 -9.93012 -39.19686 37988 ft 459 kts 25°
2026-04-18 00:14 -9.90121 -39.18299 38114 ft 459 kts 25°
2026-04-18 00:15 -9.87239 -39.16916 38229 ft 459 kts 25°
2026-04-18 00:15 -9.84349 -39.15531 38361 ft 459 kts 25°
2026-04-18 00:15 -9.81485 -39.14184 38467 ft 459 kts 25°
2026-04-18 00:15 -9.78582 -39.12842 38580 ft 460 kts 24°
2026-04-18 00:16 -9.75671 -39.11503 38692 ft 460 kts 24°
2026-04-18 00:16 -9.72753 -39.10163 38801 ft 460 kts 24°
2026-04-18 00:16 -9.69835 -39.08819 38903 ft 460 kts 24°
2026-04-18 00:17 -9.64015 -39.06135 39003 ft 459 kts 24°
2026-04-18 00:17 -9.58203 -39.03452 38997 ft 459 kts 24°
2026-04-18 00:18 -9.52434 -39.00788 38998 ft 459 kts 24°
2026-04-18 00:18 -9.46620 -38.98105 38999 ft 459 kts 24°
2026-04-18 00:19 -9.40816 -38.95428 39007 ft 458 kts 24°
2026-04-18 00:19 -9.35014 -38.92752 39005 ft 458 kts 24°
2026-04-18 00:20 -9.29250 -38.90096 38999 ft 458 kts 24°
2026-04-18 00:20 -9.23438 -38.87417 38998 ft 458 kts 24°
2026-04-18 00:21 -9.17635 -38.84744 38995 ft 458 kts 24°
2026-04-18 00:21 -9.11831 -38.82071 38999 ft 459 kts 24°
2026-04-18 00:22 -9.06025 -38.79398 38996 ft 459 kts 24°
2026-04-18 00:22 -9.00257 -38.76744 39000 ft 459 kts 24°
2026-04-18 00:23 -8.94439 -38.74067 38999 ft 459 kts 24°
2026-04-18 00:23 -8.88633 -38.71397 39002 ft 458 kts 24°
2026-04-18 00:24 -8.82829 -38.68729 39003 ft 458 kts 24°
2026-04-18 00:24 -8.77064 -38.66080 39001 ft 458 kts 24°
2026-04-18 00:25 -8.71253 -38.63410 39003 ft 458 kts 24°
2026-04-18 00:25 -8.65452 -38.60746 38998 ft 458 kts 24°
2026-04-18 00:26 -8.59651 -38.58083 38997 ft 458 kts 24°
2026-04-18 00:26 -8.53888 -38.55438 39002 ft 458 kts 24°
2026-04-18 00:27 -8.48084 -38.52776 39002 ft 458 kts 24°
2026-04-18 00:27 -8.42282 -38.50116 38996 ft 458 kts 24°
2026-04-18 00:28 -8.36469 -38.47452 38999 ft 458 kts 24°
2026-04-18 00:28 -8.30704 -38.44810 39009 ft 458 kts 24°
2026-04-18 00:29 -8.24899 -38.42151 39001 ft 458 kts 24°
2026-04-18 00:29 -8.19093 -38.39491 38997 ft 458 kts 24°
2026-04-18 00:30 -8.13286 -38.36831 38996 ft 459 kts 24°
2026-04-18 00:30 -8.07468 -38.34167 38995 ft 459 kts 24°
2026-04-18 00:31 -8.01697 -38.31526 39000 ft 459 kts 24°
2026-04-18 00:31 -7.95887 -38.28867 38998 ft 459 kts 24°
2026-04-18 00:32 -7.90075 -38.26209 38998 ft 459 kts 24°
2026-04-18 00:32 -7.84257 -38.23548 38989 ft 459 kts 24°
2026-04-18 00:33 -7.78464 -38.20900 38990 ft 460 kts 24°
2026-04-18 00:33 -7.72638 -38.18239 38992 ft 460 kts 24°
2026-04-18 00:34 -7.67797 -38.16031 38992 ft 460 kts 24°
2026-04-18 00:34 -7.61956 -38.13368 38997 ft 460 kts 24°
2026-04-18 00:35 -7.56126 -38.10710 39007 ft 460 kts 24°
2026-04-18 00:35 -7.49350 -38.07622 39006 ft 460 kts 24°
2026-04-18 00:36 -7.44477 -38.05402 39013 ft 459 kts 24°
2026-04-18 00:36 -7.38688 -38.02765 39006 ft 459 kts 24°
2026-04-18 00:37 -7.32874 -38.00117 39005 ft 459 kts 24°
2026-04-18 00:37 -7.27062 -37.97471 39010 ft 458 kts 24°
2026-04-18 00:38 -7.21253 -37.94827 39009 ft 458 kts 24°
2026-04-18 00:38 -7.15475 -37.92199 39003 ft 458 kts 24°
2026-04-18 00:39 -7.09672 -37.89555 38999 ft 458 kts 24°
2026-04-18 00:39 -7.03871 -37.86912 39004 ft 458 kts 24°
2026-04-18 00:40 -6.98070 -37.84269 39005 ft 458 kts 24°
2026-04-18 00:40 -6.92299 -37.81641 39001 ft 458 kts 24°
2026-04-18 00:41 -6.86501 -37.79002 39009 ft 457 kts 24°
2026-04-18 00:41 -6.80704 -37.76364 38997 ft 457 kts 24°
2026-04-18 00:42 -6.74907 -37.73728 39002 ft 457 kts 24°
2026-04-18 00:42 -6.69111 -37.71093 39004 ft 457 kts 24°
2026-04-18 00:43 -6.63345 -37.68473 39000 ft 457 kts 24°
2026-04-18 00:43 -6.57550 -37.65840 38999 ft 457 kts 24°
2026-04-18 00:44 -6.51755 -37.63207 38998 ft 457 kts 24°
2026-04-18 00:44 -6.45961 -37.60576 39001 ft 457 kts 24°
2026-04-18 00:45 -6.40166 -37.57945 38998 ft 457 kts 24°
2026-04-18 00:45 -6.34399 -37.55327 38997 ft 457 kts 24°
2026-04-18 00:46 -6.28604 -37.52698 39002 ft 457 kts 24°
2026-04-18 00:46 -6.22810 -37.50069 39007 ft 457 kts 24°
2026-04-18 00:47 -6.17015 -37.47441 38999 ft 457 kts 24°
2026-04-18 00:47 -6.11251 -37.44827 39001 ft 457 kts 24°
2026-04-18 00:48 -6.05458 -37.42201 39008 ft 457 kts 24°
2026-04-18 00:48 -5.99666 -37.39575 39000 ft 457 kts 24°
2026-04-18 00:49 -5.91012 -37.35654 39006 ft 457 kts 24°
2026-04-18 00:49 -5.85222 -37.33031 39001 ft 457 kts 24°
2026-04-18 00:50 -5.79433 -37.30409 38997 ft 457 kts 24°
2026-04-18 00:50 -5.73636 -37.27781 39002 ft 456 kts 24°
2026-04-18 00:51 -5.67897 -37.25157 39005 ft 456 kts 24°
2026-04-18 00:51 -5.62122 -37.22513 38998 ft 456 kts 24°
2026-04-18 00:52 -5.56348 -37.19871 39007 ft 456 kts 24°
2026-04-18 00:52 -5.50572 -37.17230 38998 ft 456 kts 24°
2026-04-18 00:53 -5.44785 -37.14586 38997 ft 456 kts 24°
2026-04-18 00:53 -5.39047 -37.11962 38997 ft 456 kts 24°
2026-04-18 00:54 -5.33271 -37.09321 39006 ft 456 kts 24°
2026-04-18 00:54 -5.27494 -37.06681 38997 ft 456 kts 24°
2026-04-18 00:55 -5.21705 -37.04035 39003 ft 457 kts 24°
2026-04-18 00:55 -5.15920 -37.01392 39004 ft 457 kts 24°
2026-04-18 00:56 -5.10176 -36.98769 38998 ft 457 kts 24°
2026-04-18 00:56 -5.04394 -36.96128 38999 ft 457 kts 24°
2026-04-18 00:57 -4.98611 -36.93487 39004 ft 457 kts 24°
2026-04-18 00:57 -4.92830 -36.90848 39005 ft 456 kts 24°
2026-04-18 00:58 -4.87082 -36.88224 39004 ft 456 kts 24°
2026-04-18 00:58 -4.81307 -36.85588 39006 ft 456 kts 24°
2026-04-18 00:59 -4.75533 -36.82953 39001 ft 456 kts 24°
2026-04-18 00:59 -4.69761 -36.80320 39004 ft 456 kts 24°
2026-04-18 01:00 -4.64018 -36.77701 39001 ft 456 kts 24°
2026-04-18 01:00 -4.58247 -36.75071 39005 ft 456 kts 24°
2026-04-18 01:01 -4.52477 -36.72442 39000 ft 456 kts 24°
2026-04-18 01:01 -4.46707 -36.69813 39005 ft 456 kts 24°
2026-04-18 01:02 -4.40928 -36.67180 39000 ft 456 kts 24°
2026-04-18 01:02 -4.35197 -36.64570 39002 ft 456 kts 24°
2026-04-18 01:03 -4.29428 -36.61943 38998 ft 456 kts 24°
2026-04-18 01:03 -4.23659 -36.59316 38999 ft 456 kts 24°
2026-04-18 01:04 -4.17890 -36.56690 39000 ft 456 kts 24°
2026-04-18 01:04 -4.12150 -36.54077 38996 ft 456 kts 24°
2026-04-18 01:05 -4.06378 -36.51450 39002 ft 456 kts 24°
2026-04-18 01:05 -4.00609 -36.48825 39005 ft 456 kts 24°
2026-04-18 01:06 -3.94840 -36.46200 38996 ft 456 kts 24°
2026-04-18 01:06 -3.89071 -36.43576 38996 ft 456 kts 24°
2026-04-18 01:07 -3.83340 -36.40970 39004 ft 456 kts 24°
2026-04-18 01:07 -3.77562 -36.38342 38996 ft 456 kts 24°
2026-04-18 01:08 -3.71792 -36.35719 38996 ft 456 kts 24°
2026-04-18 01:08 -3.66023 -36.33096 38999 ft 456 kts 24°
2026-04-18 01:09 -3.60244 -36.30469 38996 ft 456 kts 24°
2026-04-18 01:09 -3.54513 -36.27865 39003 ft 456 kts 24°
2026-04-18 01:10 -3.48743 -36.25243 39000 ft 456 kts 24°
2026-04-18 01:10 -3.42974 -36.22621 39001 ft 456 kts 24°
2026-04-18 01:11 -3.37204 -36.20000 38996 ft 456 kts 24°
2026-04-18 01:11 -3.31463 -36.17392 39005 ft 456 kts 24°
2026-04-18 01:12 -3.25693 -36.14772 38998 ft 456 kts 24°
2026-04-18 01:12 -3.19923 -36.12152 39004 ft 456 kts 24°
2026-04-18 01:13 -3.14153 -36.09532 39000 ft 456 kts 24°
2026-04-18 01:13 -3.08421 -36.06929 39008 ft 456 kts 24°
2026-04-18 01:14 -3.02641 -36.04306 38999 ft 456 kts 24°
2026-04-18 01:14 -2.96871 -36.01686 39003 ft 456 kts 24°
2026-04-18 01:15 -2.91100 -35.99067 38998 ft 456 kts 24°
2026-04-18 01:15 -2.85368 -35.96466 39004 ft 456 kts 24°
2026-04-18 01:16 -2.79588 -35.93844 38996 ft 456 kts 24°
2026-04-18 01:16 -2.73817 -35.91226 38999 ft 456 kts 24°
2026-04-18 01:17 -2.68085 -35.88625 39000 ft 456 kts 24°
2026-04-18 01:17 -2.62314 -35.86008 39000 ft 456 kts 24°
2026-04-18 01:18 -2.56534 -35.83386 39000 ft 456 kts 24°
2026-04-18 01:18 -2.50763 -35.80769 38996 ft 456 kts 24°
2026-04-18 01:19 -2.44992 -35.78152 38999 ft 456 kts 24°
2026-04-18 01:19 -2.39260 -35.75553 39006 ft 456 kts 24°
2026-04-18 01:20 -2.33489 -35.72936 38999 ft 456 kts 24°
2026-04-18 01:20 -2.27708 -35.70316 39005 ft 456 kts 24°
2026-04-18 01:21 -2.21937 -35.67700 39002 ft 456 kts 24°
2026-04-18 01:21 -2.16204 -35.65102 39000 ft 456 kts 24°
2026-04-18 01:22 -2.10433 -35.62486 39001 ft 456 kts 24°
2026-04-18 01:22 -2.04652 -35.59866 38999 ft 456 kts 24°
2026-04-18 01:23 -1.98881 -35.57251 38999 ft 456 kts 24°
2026-04-18 01:23 -1.93146 -35.54652 38999 ft 456 kts 24°
2026-04-18 01:24 -1.87375 -35.52038 39000 ft 456 kts 24°
2026-04-18 01:24 -1.81604 -35.49423 39000 ft 456 kts 24°
2026-04-18 01:25 -1.75823 -35.46804 39000 ft 456 kts 24°
2026-04-18 01:25 -1.70188 -35.43920 38997 ft 455 kts 28°
2026-04-18 01:26 -1.64675 -35.40892 38998 ft 455 kts 29°
2026-04-18 01:26 -1.59130 -35.37834 38999 ft 455 kts 29°
2026-04-18 01:27 -1.53575 -35.34773 39003 ft 455 kts 29°
2026-04-18 01:27 -1.48028 -35.31720 38998 ft 455 kts 29°
2026-04-18 01:28 -1.42481 -35.28668 38995 ft 455 kts 29°
2026-04-18 01:28 -1.36971 -35.25637 38995 ft 455 kts 29°
2026-04-18 01:29 -1.31414 -35.22580 38999 ft 455 kts 29°
2026-04-18 01:29 -1.25867 -35.19530 39004 ft 455 kts 29°
2026-04-18 01:30 -1.20357 -35.16500 38997 ft 455 kts 29°
2026-04-18 01:30 -1.14809 -35.13450 39004 ft 455 kts 29°
2026-04-18 01:31 -1.09261 -35.10400 39004 ft 455 kts 29°
2026-04-18 01:31 -1.03704 -35.07345 39004 ft 455 kts 29°
2026-04-18 01:32 -0.98156 -35.04296 38998 ft 455 kts 29°
2026-04-18 01:32 -0.92644 -35.01267 38998 ft 455 kts 29°
2026-04-18 01:33 -0.87094 -34.98218 38996 ft 455 kts 29°
2026-04-18 01:33 -0.81545 -34.95169 38998 ft 455 kts 29°
2026-04-18 01:34 -0.76023 -34.92135 39000 ft 455 kts 29°
2026-04-18 01:34 -0.70474 -34.89087 38998 ft 455 kts 29°
2026-04-18 01:35 -0.64924 -34.86038 38998 ft 455 kts 29°
2026-04-18 01:35 -0.59374 -34.82989 38996 ft 455 kts 29°
2026-04-18 01:36 -0.53823 -34.79941 38999 ft 455 kts 29°
2026-04-18 01:36 -0.48301 -34.76908 39003 ft 455 kts 29°
2026-04-18 01:37 -0.42750 -34.73859 39001 ft 455 kts 29°
2026-04-18 01:37 -0.37199 -34.70811 38998 ft 455 kts 29°
2026-04-18 01:38 -0.31648 -34.67762 39007 ft 455 kts 29°
2026-04-18 01:38 -0.26087 -34.64709 38998 ft 455 kts 29°
2026-04-18 01:39 -0.20573 -34.61681 38999 ft 455 kts 29°
2026-04-18 01:39 -0.15021 -34.58632 39000 ft 455 kts 29°
2026-04-18 01:40 -0.09470 -34.55584 38999 ft 455 kts 29°
2026-04-18 01:40 -0.03909 -34.52530 38997 ft 455 kts 29°
2026-04-18 01:41 0.01606 -34.49502 38997 ft 455 kts 29°
2026-04-18 01:41 0.07158 -34.46454 38999 ft 455 kts 29°
2026-04-18 01:42 0.12709 -34.43403 39000 ft 456 kts 29°
2026-04-18 01:42 0.18259 -34.40352 38997 ft 455 kts 29°
2026-04-18 01:43 0.23775 -34.37320 38997 ft 456 kts 29°
2026-04-18 01:43 0.29335 -34.34266 39001 ft 456 kts 29°
2026-04-18 01:44 0.34888 -34.31217 38999 ft 456 kts 29°
2026-04-18 01:44 0.40440 -34.28168 39003 ft 456 kts 29°
2026-04-18 01:45 0.45992 -34.25119 39001 ft 456 kts 29°
2026-04-18 01:45 0.51516 -34.22084 39000 ft 456 kts 29°
2026-04-18 01:46 0.57068 -34.19035 39001 ft 456 kts 29°
2026-04-18 01:46 0.62621 -34.15986 39002 ft 456 kts 29°
2026-04-18 01:47 0.68174 -34.12938 39001 ft 456 kts 29°
2026-04-18 01:47 0.73690 -34.09910 39000 ft 456 kts 29°
2026-04-18 01:48 0.79253 -34.06857 39000 ft 456 kts 29°
2026-04-18 01:48 0.84806 -34.03808 39004 ft 456 kts 29°
2026-04-18 01:49 0.90359 -34.00760 39007 ft 456 kts 29°
2026-04-18 01:49 0.95913 -33.97711 39001 ft 456 kts 29°
2026-04-18 01:50 1.01440 -33.94678 38998 ft 456 kts 29°
2026-04-18 01:50 1.06994 -33.91629 38998 ft 456 kts 29°
2026-04-18 01:51 1.12548 -33.88581 39000 ft 456 kts 29°
2026-04-18 01:51 1.18102 -33.85532 38998 ft 456 kts 29°
2026-04-18 01:52 1.23628 -33.82498 39000 ft 456 kts 29°
2026-04-18 01:52 1.29181 -33.79448 39003 ft 456 kts 29°
2026-04-18 01:53 1.34735 -33.76399 39001 ft 456 kts 29°
2026-04-18 01:54 1.43071 -33.71821 39001 ft 456 kts 29°
2026-04-18 01:54 1.48587 -33.68792 39001 ft 456 kts 29°
2026-04-18 01:55 1.54140 -33.65742 39000 ft 456 kts 29°
2026-04-18 01:55 1.59693 -33.62692 39000 ft 456 kts 29°
2026-04-18 01:56 1.65255 -33.59637 39005 ft 456 kts 29°
2026-04-18 01:56 1.70771 -33.56607 39001 ft 456 kts 29°
2026-04-18 01:57 1.76324 -33.53556 38997 ft 456 kts 29°
2026-04-18 01:57 1.81877 -33.50506 39001 ft 456 kts 29°
2026-04-18 01:58 1.87438 -33.47450 39001 ft 456 kts 29°
2026-04-18 01:58 1.92991 -33.44399 39000 ft 456 kts 29°
2026-04-18 01:59 1.98506 -33.41369 39000 ft 456 kts 29°
2026-04-18 01:59 2.04059 -33.38317 39003 ft 456 kts 29°
2026-04-18 02:00 2.09620 -33.35261 38999 ft 456 kts 29°
2026-04-18 02:00 2.15172 -33.32209 39002 ft 456 kts 29°
2026-04-18 02:01 2.20687 -33.29178 39000 ft 456 kts 29°
2026-04-18 02:01 2.26239 -33.26126 39002 ft 456 kts 29°
2026-04-18 02:02 2.31791 -33.23073 38998 ft 456 kts 29°
2026-04-18 02:02 2.37352 -33.20016 39002 ft 456 kts 29°
2026-04-18 02:03 2.42904 -33.16963 39002 ft 456 kts 29°
2026-04-18 02:03 2.48419 -33.13931 38997 ft 456 kts 29°
2026-04-18 02:04 2.53970 -33.10877 38997 ft 456 kts 29°
2026-04-18 02:04 2.59531 -33.07819 39006 ft 456 kts 29°
2026-04-18 02:05 2.65082 -33.04765 38997 ft 456 kts 29°
2026-04-18 02:05 2.70596 -33.01731 39001 ft 456 kts 29°
2026-04-18 02:06 2.76147 -32.98677 39000 ft 456 kts 29°
2026-04-18 02:06 2.81707 -32.95617 38999 ft 456 kts 29°
2026-04-18 02:07 2.87258 -32.92563 39001 ft 456 kts 29°
2026-04-18 02:07 2.92809 -32.89508 38997 ft 456 kts 29°
2026-04-18 02:08 2.98323 -32.86472 39000 ft 456 kts 29°
2026-04-18 02:08 3.03873 -32.83417 39001 ft 456 kts 29°
2026-04-18 02:09 3.09433 -32.80356 39000 ft 456 kts 29°
2026-04-18 02:09 3.14946 -32.77320 39000 ft 456 kts 29°
2026-04-18 02:10 3.20496 -32.74263 38997 ft 456 kts 29°
2026-04-18 02:10 3.26047 -32.71206 39002 ft 456 kts 29°
2026-04-18 02:11 3.31606 -32.68144 39006 ft 456 kts 29°
2026-04-18 02:11 3.37119 -32.65106 38999 ft 456 kts 29°
2026-04-18 02:12 3.42669 -32.62049 39005 ft 456 kts 29°
2026-04-18 02:12 3.48219 -32.58990 38999 ft 456 kts 29°
2026-04-18 02:13 3.53769 -32.55932 38997 ft 456 kts 29°
2026-04-18 02:13 3.59328 -32.52868 38999 ft 456 kts 29°
2026-04-18 02:14 3.64840 -32.49829 39001 ft 456 kts 29°
2026-04-18 02:14 3.70390 -32.46769 38999 ft 456 kts 29°
2026-04-18 02:15 3.75949 -32.43704 39002 ft 456 kts 29°
2026-04-18 02:15 3.81492 -32.40647 39006 ft 456 kts 29°
2026-04-18 02:16 3.87014 -32.37601 39000 ft 456 kts 29°
2026-04-18 02:16 3.92563 -32.34540 38999 ft 456 kts 29°
2026-04-18 02:17 3.98112 -32.31478 39000 ft 456 kts 29°
2026-04-18 02:17 4.03661 -32.28416 38997 ft 456 kts 29°
2026-04-18 02:18 4.09219 -32.25349 39001 ft 456 kts 29°
2026-04-18 02:18 4.14730 -32.22306 39002 ft 456 kts 29°
2026-04-18 02:19 4.20279 -32.19243 38997 ft 456 kts 29°
2026-04-18 02:19 4.25827 -32.16179 38997 ft 456 kts 29°
2026-04-18 02:20 4.31375 -32.13115 39001 ft 455 kts 29°
2026-04-18 02:20 4.36896 -32.10066 39006 ft 456 kts 29°
2026-04-18 02:21 4.42444 -32.07001 39003 ft 456 kts 29°
2026-04-18 02:21 4.47992 -32.03935 39003 ft 455 kts 29°
2026-04-18 02:22 4.53539 -32.00869 38997 ft 456 kts 29°
2026-04-18 02:22 4.59059 -31.97818 39000 ft 456 kts 29°
2026-04-18 02:23 4.64607 -31.94751 38997 ft 456 kts 29°
2026-04-18 02:23 4.70154 -31.91684 39003 ft 455 kts 29°
2026-04-18 02:24 4.75701 -31.88615 39001 ft 455 kts 29°
2026-04-18 02:24 4.81256 -31.85540 39000 ft 456 kts 29°
2026-04-18 02:25 4.86766 -31.82492 39002 ft 456 kts 29°
2026-04-18 02:25 4.92313 -31.79423 38999 ft 456 kts 29°
2026-04-18 02:26 4.97860 -31.76353 38998 ft 456 kts 29°
2026-04-18 02:26 5.03416 -31.73278 39000 ft 456 kts 29°
2026-04-18 02:27 5.08926 -31.70227 39001 ft 455 kts 29°
2026-04-18 02:27 5.14472 -31.67156 39000 ft 456 kts 29°
2026-04-18 02:28 5.20018 -31.64084 39001 ft 456 kts 29°
2026-04-18 02:28 5.25558 -31.61001 38997 ft 456 kts 30°
2026-04-18 02:29 5.31056 -31.57906 39002 ft 455 kts 30°
2026-04-18 02:29 5.36581 -31.54795 38999 ft 456 kts 30°
2026-04-18 02:30 5.42108 -31.51687 39003 ft 456 kts 30°
2026-04-18 02:30 5.47635 -31.48580 38997 ft 456 kts 30°
2026-04-18 02:31 5.53135 -31.45488 39000 ft 455 kts 30°
2026-04-18 02:31 5.58662 -31.42379 39001 ft 456 kts 30°
2026-04-18 02:32 5.64189 -31.39270 38997 ft 455 kts 30°
2026-04-18 02:32 5.69715 -31.36161 39000 ft 456 kts 30°
2026-04-18 02:33 5.75205 -31.33071 38998 ft 455 kts 30°
2026-04-18 02:33 5.80740 -31.29955 38999 ft 456 kts 30°
2026-04-18 02:34 5.86266 -31.26844 38998 ft 456 kts 30°
2026-04-18 02:34 5.91792 -31.23732 39007 ft 456 kts 30°
2026-04-18 02:35 5.97281 -31.20640 39000 ft 455 kts 30°
2026-04-18 02:35 6.02815 -31.17522 38999 ft 456 kts 30°
2026-04-18 02:36 6.08341 -31.14408 39000 ft 455 kts 30°
2026-04-18 02:36 6.13866 -31.11294 39001 ft 456 kts 30°
2026-04-18 02:37 6.19354 -31.08199 38997 ft 456 kts 30°
2026-04-18 02:37 6.24888 -31.05078 39010 ft 456 kts 30°
2026-04-18 02:38 6.30412 -31.01962 39000 ft 455 kts 30°
2026-04-18 02:38 6.35937 -30.98845 39009 ft 455 kts 30°
2026-04-18 02:39 6.41424 -30.95748 38998 ft 456 kts 30°
2026-04-18 02:39 6.46951 -30.92628 39009 ft 455 kts 30°
2026-04-18 02:40 6.52475 -30.89509 38999 ft 455 kts 30°
2026-04-18 02:40 6.57998 -30.86389 39003 ft 455 kts 30°
2026-04-18 02:41 6.63494 -30.83284 38999 ft 455 kts 30°
2026-04-18 02:41 6.69017 -30.80163 38997 ft 455 kts 30°
2026-04-18 02:42 6.74540 -30.77041 39005 ft 455 kts 30°
2026-04-18 02:42 6.80062 -30.73919 38998 ft 455 kts 30°
2026-04-18 02:43 6.85594 -30.70790 38999 ft 455 kts 30°
2026-04-18 02:43 6.91079 -30.67687 39001 ft 455 kts 30°
2026-04-18 02:44 6.96601 -30.64563 38997 ft 455 kts 30°
2026-04-18 02:44 7.02123 -30.61437 39000 ft 455 kts 30°
2026-04-18 02:45 7.07645 -30.58311 39006 ft 455 kts 30°
2026-04-18 02:45 7.13139 -30.55200 39002 ft 455 kts 30°
2026-04-18 02:46 7.18660 -30.52072 39006 ft 455 kts 30°
2026-04-18 02:46 7.24181 -30.48944 39001 ft 455 kts 30°
2026-04-18 02:47 7.29702 -30.45815 38997 ft 455 kts 30°
2026-04-18 02:47 7.35195 -30.42700 38999 ft 455 kts 30°
2026-04-18 02:48 7.40715 -30.39569 38999 ft 455 kts 30°
2026-04-18 02:48 7.46235 -30.36438 39002 ft 455 kts 30°
2026-04-18 02:49 7.51754 -30.33305 38999 ft 455 kts 30°
2026-04-18 02:49 7.57246 -30.30188 39007 ft 455 kts 30°
2026-04-18 02:50 7.62765 -30.27054 38999 ft 455 kts 30°
2026-04-18 02:50 7.68284 -30.23919 39000 ft 455 kts 30°
2026-04-18 02:51 7.73803 -30.20784 38999 ft 455 kts 30°
2026-04-18 02:51 7.79331 -30.17642 39000 ft 455 kts 30°
2026-04-18 02:52 7.84812 -30.14526 39003 ft 455 kts 30°
2026-04-18 02:52 7.90330 -30.11388 38999 ft 455 kts 30°
2026-04-18 02:53 7.95848 -30.08249 38997 ft 455 kts 30°
2026-04-18 02:53 8.01366 -30.05110 39002 ft 455 kts 30°
2026-04-18 02:54 8.06855 -30.01985 39004 ft 455 kts 30°
2026-04-18 02:54 8.12373 -29.98844 38997 ft 455 kts 30°
2026-04-18 02:55 8.17889 -29.95702 39001 ft 455 kts 30°
2026-04-18 02:55 8.23406 -29.92559 39002 ft 455 kts 30°
2026-04-18 02:56 8.28895 -29.89430 39000 ft 455 kts 30°
2026-04-18 02:56 8.37164 -29.84716 38997 ft 455 kts 30°
2026-04-18 02:57 8.42689 -29.81565 39000 ft 455 kts 30°
2026-04-18 02:57 8.48205 -29.78418 39000 ft 455 kts 30°
2026-04-18 02:58 8.53683 -29.75291 38997 ft 455 kts 30°
2026-04-18 02:58 8.59198 -29.72141 38997 ft 455 kts 30°
2026-04-18 02:59 8.64721 -29.68986 39010 ft 455 kts 30°
2026-04-18 02:59 8.70235 -29.65835 38997 ft 455 kts 30°
2026-04-18 03:00 8.75712 -29.62703 39000 ft 455 kts 30°
2026-04-18 03:00 8.81225 -29.59550 39001 ft 455 kts 30°
2026-04-18 03:01 8.86739 -29.56396 38997 ft 455 kts 30°
2026-04-18 03:01 8.92261 -29.53236 38997 ft 455 kts 30°
2026-04-18 03:02 8.97738 -29.50102 39000 ft 455 kts 30°
2026-04-18 03:02 9.03251 -29.46946 38999 ft 455 kts 30°
2026-04-18 03:03 9.08763 -29.43788 38997 ft 455 kts 30°
2026-04-18 03:03 9.14275 -29.40630 39002 ft 455 kts 30°
2026-04-18 03:04 9.19797 -29.37465 39001 ft 455 kts 30°
2026-04-18 03:04 9.25272 -29.34326 38999 ft 455 kts 30°
2026-04-18 03:05 9.30783 -29.31165 38999 ft 455 kts 30°
2026-04-18 03:05 9.36294 -29.28003 38997 ft 455 kts 30°
2026-04-18 03:06 9.41814 -29.24834 39006 ft 455 kts 30°
2026-04-18 03:06 9.47288 -29.21691 39001 ft 455 kts 30°
2026-04-18 03:07 9.52800 -29.18525 39005 ft 455 kts 30°
2026-04-18 03:07 9.58309 -29.15359 39008 ft 455 kts 30°
2026-04-18 03:08 9.63828 -29.12186 39006 ft 455 kts 30°
2026-04-18 03:08 9.69301 -29.09039 39002 ft 455 kts 30°
2026-04-18 03:09 9.74810 -29.05870 39002 ft 455 kts 30°
2026-04-18 03:09 9.80319 -29.02700 39000 ft 455 kts 30°
2026-04-18 03:10 9.85826 -28.99527 39000 ft 455 kts 30°
2026-04-18 03:10 9.91343 -28.96349 39000 ft 455 kts 30°
2026-04-18 03:11 9.96814 -28.93196 38999 ft 455 kts 30°
2026-04-18 03:11 10.02322 -28.90022 39001 ft 455 kts 30°
2026-04-18 03:12 10.07829 -28.86846 39004 ft 455 kts 30°
2026-04-18 03:12 10.13345 -28.83664 38997 ft 455 kts 30°
2026-04-18 03:13 10.18815 -28.80507 38997 ft 455 kts 30°
2026-04-18 03:13 10.24321 -28.77328 39001 ft 455 kts 30°
2026-04-18 03:14 10.29827 -28.74148 38999 ft 455 kts 30°
2026-04-18 03:14 10.35341 -28.70960 39001 ft 455 kts 30°
2026-04-18 03:15 10.40809 -28.67797 39001 ft 455 kts 30°
2026-04-18 03:15 10.46314 -28.64613 38997 ft 455 kts 30°
2026-04-18 03:16 10.51819 -28.61428 39002 ft 455 kts 30°
2026-04-18 03:16 10.57296 -28.58258 38997 ft 455 kts 30°
2026-04-18 03:17 10.62800 -28.55071 39002 ft 455 kts 30°
2026-04-18 03:17 10.68303 -28.51883 39006 ft 455 kts 30°
2026-04-18 03:18 10.73807 -28.48694 39001 ft 455 kts 30°
2026-04-18 03:18 10.79310 -28.45503 39000 ft 455 kts 30°
2026-04-18 03:19 10.84785 -28.42328 38997 ft 455 kts 30°
2026-04-18 03:19 10.90288 -28.39135 39000 ft 455 kts 30°
2026-04-18 03:20 10.95790 -28.35941 38997 ft 455 kts 30°
2026-04-18 03:20 11.01293 -28.32746 39000 ft 455 kts 30°
2026-04-18 03:21 11.06796 -28.29549 39004 ft 455 kts 30°
2026-04-18 03:21 11.12270 -28.26367 39001 ft 455 kts 30°
2026-04-18 03:22 11.17771 -28.23168 39005 ft 455 kts 30°
2026-04-18 03:22 11.23271 -28.19968 39000 ft 455 kts 30°
2026-04-18 03:23 11.27847 -28.17305 39001 ft 455 kts 30°
2026-04-18 03:23 11.34244 -28.13580 39006 ft 455 kts 30°
2026-04-18 03:24 11.39743 -28.10376 39000 ft 455 kts 30°
2026-04-18 03:24 11.45242 -28.07171 39006 ft 455 kts 30°
2026-04-18 03:25 11.49817 -28.04504 39000 ft 455 kts 30°
2026-04-18 03:25 11.56212 -28.00774 38997 ft 455 kts 30°
2026-04-18 03:26 11.60777 -27.98110 39000 ft 455 kts 30°
2026-04-18 03:26 11.66274 -27.94900 39000 ft 455 kts 30°
2026-04-18 03:27 11.72668 -27.91165 38999 ft 455 kts 30°
2026-04-18 03:27 11.78164 -27.87953 38999 ft 455 kts 30°
2026-04-18 03:28 11.82737 -27.85279 38997 ft 455 kts 30°
2026-04-18 03:28 11.88233 -27.82065 39001 ft 455 kts 30°
2026-04-18 03:29 11.94625 -27.78324 38997 ft 455 kts 30°
2026-04-18 03:29 11.99197 -27.75647 38998 ft 455 kts 30°
2026-04-18 03:30 12.04691 -27.72429 38999 ft 455 kts 30°
2026-04-18 03:30 12.10185 -27.69207 39004 ft 455 kts 30°
2026-04-18 03:31 12.15688 -27.65979 39000 ft 455 kts 30°
2026-04-18 03:31 12.21145 -27.62778 39002 ft 455 kts 30°
2026-04-18 03:32 12.26639 -27.59554 38997 ft 455 kts 30°
2026-04-18 03:32 12.32132 -27.56329 39001 ft 455 kts 30°
2026-04-18 03:33 12.37625 -27.53102 39000 ft 455 kts 30°
2026-04-18 03:33 12.43127 -27.49869 38997 ft 455 kts 30°
2026-04-18 03:34 12.48583 -27.46661 38997 ft 455 kts 30°
2026-04-18 03:34 12.54074 -27.43430 39004 ft 455 kts 30°
2026-04-18 03:35 12.59566 -27.40198 39005 ft 455 kts 30°
2026-04-18 03:35 12.65066 -27.36959 39006 ft 455 kts 30°
2026-04-18 03:36 12.70520 -27.33746 39009 ft 455 kts 30°
2026-04-18 03:36 12.76010 -27.30510 39000 ft 455 kts 30°
2026-04-18 03:37 12.81499 -27.27272 38997 ft 455 kts 30°
2026-04-18 03:37 12.86988 -27.24033 39002 ft 455 kts 30°
2026-04-18 03:38 12.92450 -27.20809 38999 ft 455 kts 30°
2026-04-18 03:38 12.97938 -27.17567 39004 ft 455 kts 30°
2026-04-18 03:39 13.03435 -27.14318 39000 ft 455 kts 30°
2026-04-18 03:39 13.08913 -27.11079 38997 ft 455 kts 30°
2026-04-18 03:40 13.14373 -27.07849 38997 ft 455 kts 30°
2026-04-18 03:40 13.19859 -27.04601 39000 ft 455 kts 30°
2026-04-18 03:41 13.25345 -27.01352 39002 ft 455 kts 30°
2026-04-18 03:41 13.30831 -26.98102 39001 ft 455 kts 30°
2026-04-18 03:42 13.36326 -26.94844 38997 ft 455 kts 30°
2026-04-18 03:42 13.41774 -26.91612 38999 ft 455 kts 30°
2026-04-18 03:43 13.47259 -26.88357 38999 ft 455 kts 30°
2026-04-18 03:43 13.52743 -26.85101 39005 ft 455 kts 30°
2026-04-18 03:44 13.58190 -26.81865 39001 ft 455 kts 30°
2026-04-18 03:44 13.63683 -26.78600 39001 ft 455 kts 30°
2026-04-18 03:45 13.69166 -26.75339 39001 ft 455 kts 30°
2026-04-18 03:45 13.74649 -26.72076 38997 ft 455 kts 30°
2026-04-18 03:46 13.80094 -26.68833 39001 ft 455 kts 30°
2026-04-18 03:46 13.85585 -26.65562 39000 ft 455 kts 30°
2026-04-18 03:47 13.91067 -26.62295 39001 ft 455 kts 30°
2026-04-18 03:47 13.96548 -26.59026 39000 ft 455 kts 30°
2026-04-18 03:48 14.02028 -26.55756 39002 ft 455 kts 30°
2026-04-18 03:48 14.07481 -26.52501 38997 ft 455 kts 30°
2026-04-18 03:49 14.12960 -26.49227 38997 ft 455 kts 30°
2026-04-18 03:49 14.18438 -26.45950 38997 ft 455 kts 30°
2026-04-18 03:50 14.23917 -26.42674 39000 ft 455 kts 30°
2026-04-18 03:50 14.29360 -26.39418 38997 ft 455 kts 30°
2026-04-18 03:51 14.34847 -26.36133 38998 ft 455 kts 30°
2026-04-18 03:51 14.40323 -26.32850 39000 ft 455 kts 30°
2026-04-18 03:52 14.45799 -26.29565 39006 ft 455 kts 30°
2026-04-18 03:52 14.51238 -26.26301 39000 ft 455 kts 30°
2026-04-18 03:53 14.56714 -26.23015 38997 ft 455 kts 30°
2026-04-18 03:53 14.62198 -26.19722 38999 ft 455 kts 30°
2026-04-18 03:54 14.67672 -26.16432 39001 ft 455 kts 30°
2026-04-18 03:54 14.73110 -26.13162 39000 ft 455 kts 30°
2026-04-18 03:55 14.78583 -26.09868 39002 ft 455 kts 31°
2026-04-18 03:55 14.84066 -26.06568 38997 ft 455 kts 31°
2026-04-18 03:56 14.89538 -26.03271 38997 ft 455 kts 31°
2026-04-18 03:56 14.94974 -25.99995 39004 ft 455 kts 31°
2026-04-18 03:57 15.03186 -25.95041 39001 ft 455 kts 31°
2026-04-18 03:58 15.08657 -25.91739 38999 ft 455 kts 31°
2026-04-18 03:58 15.14127 -25.88434 39000 ft 455 kts 31°
2026-04-18 03:59 15.19570 -25.85145 39001 ft 455 kts 31°
2026-04-18 03:59 15.25040 -25.81837 39001 ft 455 kts 31°
2026-04-18 04:00 15.30509 -25.78527 38997 ft 455 kts 31°
2026-04-18 04:00 15.35977 -25.75216 39001 ft 455 kts 31°
2026-04-18 04:01 15.41409 -25.71925 38999 ft 455 kts 31°
2026-04-18 04:01 15.46886 -25.68605 38997 ft 455 kts 31°
2026-04-18 04:02 15.52353 -25.65289 38999 ft 455 kts 31°
2026-04-18 04:02 15.57820 -25.61970 39000 ft 455 kts 31°
2026-04-18 04:03 15.63249 -25.58673 39002 ft 455 kts 31°
2026-04-18 04:03 15.68724 -25.55345 39006 ft 455 kts 31°
2026-04-18 04:04 15.74189 -25.52022 39007 ft 455 kts 31°
2026-04-18 04:04 15.79654 -25.48697 39004 ft 455 kts 31°
2026-04-18 04:05 15.85081 -25.45392 39000 ft 455 kts 31°
2026-04-18 04:05 15.90544 -25.42063 39001 ft 455 kts 31°
2026-04-18 04:06 15.96016 -25.38727 39007 ft 455 kts 31°
2026-04-18 04:06 16.01478 -25.35394 38999 ft 455 kts 31°
2026-04-18 04:07 16.06903 -25.32082 38999 ft 455 kts 31°
2026-04-18 04:07 16.12364 -25.28746 39002 ft 455 kts 31°
2026-04-18 04:08 16.17834 -25.25403 39001 ft 455 kts 31°
2026-04-18 04:08 16.23294 -25.22063 38997 ft 455 kts 31°
2026-04-18 04:09 16.28717 -25.18744 39002 ft 455 kts 31°
2026-04-18 04:09 16.34176 -25.15400 39002 ft 455 kts 31°
2026-04-18 04:10 16.39643 -25.12049 39001 ft 455 kts 31°
2026-04-18 04:10 16.45101 -25.08702 39000 ft 455 kts 31°
2026-04-18 04:11 16.50558 -25.05353 39002 ft 455 kts 31°
2026-04-18 04:11 16.55979 -25.02025 39000 ft 455 kts 31°
2026-04-18 04:12 16.61444 -24.98667 39001 ft 455 kts 31°
2026-04-18 04:12 16.66900 -24.95312 39003 ft 455 kts 31°
2026-04-18 04:13 16.72355 -24.91955 39000 ft 455 kts 31°
2026-04-18 04:13 16.77773 -24.88620 38997 ft 455 kts 31°
2026-04-18 04:14 16.83227 -24.85259 38997 ft 455 kts 31°
2026-04-18 04:14 16.88689 -24.81891 39002 ft 455 kts 31°
2026-04-18 04:15 16.94142 -24.78527 38999 ft 455 kts 31°
2026-04-18 04:15 16.99558 -24.75184 38999 ft 455 kts 31°
2026-04-18 04:16 17.05009 -24.71815 39006 ft 455 kts 31°
2026-04-18 04:16 17.10470 -24.68440 39001 ft 455 kts 31°
2026-04-18 04:17 17.15920 -24.65068 39005 ft 455 kts 31°
2026-04-18 04:17 17.21334 -24.61716 38999 ft 455 kts 31°
2026-04-18 04:18 17.26784 -24.58340 39002 ft 455 kts 31°
2026-04-18 04:18 17.32242 -24.54957 38997 ft 455 kts 31°
2026-04-18 04:19 17.37690 -24.51577 39000 ft 455 kts 31°
2026-04-18 04:19 17.43102 -24.48217 38997 ft 455 kts 31°
2026-04-18 04:20 17.48549 -24.44833 39000 ft 455 kts 31°
2026-04-18 04:20 17.53996 -24.41447 38997 ft 455 kts 31°
2026-04-18 04:21 17.59451 -24.38054 39001 ft 455 kts 31°
2026-04-18 04:21 17.64861 -24.34687 38997 ft 455 kts 31°
2026-04-18 04:22 17.70306 -24.31296 38997 ft 455 kts 31°
2026-04-18 04:22 17.75750 -24.27901 39000 ft 455 kts 31°
2026-04-18 04:23 17.81192 -24.24503 38997 ft 455 kts 31°
2026-04-18 04:23 17.86609 -24.21122 39007 ft 455 kts 31°
2026-04-18 04:24 17.92055 -24.17721 39006 ft 455 kts 31°
2026-04-18 04:24 17.97497 -24.14320 39000 ft 455 kts 31°
2026-04-18 04:25 18.02939 -24.10917 38999 ft 455 kts 31°
2026-04-18 04:25 18.08380 -24.07510 38997 ft 455 kts 31°
2026-04-18 04:26 18.13793 -24.04119 39005 ft 455 kts 31°
2026-04-18 04:26 18.19233 -24.00709 39010 ft 455 kts 31°
2026-04-18 04:27 18.24672 -23.97297 39000 ft 455 kts 31°
2026-04-18 04:27 18.30111 -23.93882 38999 ft 455 kts 31°
2026-04-18 04:28 18.35522 -23.90482 38998 ft 455 kts 31°
2026-04-18 04:28 18.40959 -23.87064 39001 ft 455 kts 31°
2026-04-18 04:29 18.46396 -23.83643 39002 ft 455 kts 31°
2026-04-18 04:29 18.51832 -23.80219 38997 ft 455 kts 31°
2026-04-18 04:30 18.57231 -23.76817 39004 ft 455 kts 31°
2026-04-18 04:30 18.62675 -23.73384 39001 ft 455 kts 31°
2026-04-18 04:31 18.68110 -23.69954 39002 ft 455 kts 31°
2026-04-18 04:31 18.73544 -23.66522 39009 ft 455 kts 31°
2026-04-18 04:32 18.78941 -23.63111 39005 ft 455 kts 31°
2026-04-18 04:32 18.84382 -23.59669 38997 ft 455 kts 31°
2026-04-18 04:33 18.89814 -23.56230 39006 ft 455 kts 31°
2026-04-18 04:33 18.95245 -23.52789 39000 ft 455 kts 31°
2026-04-18 04:34 19.00676 -23.49346 38997 ft 455 kts 31°
2026-04-18 04:34 19.06079 -23.45918 39005 ft 455 kts 31°
2026-04-18 04:35 19.11508 -23.42471 39003 ft 455 kts 31°
2026-04-18 04:35 19.16937 -23.39021 38997 ft 455 kts 31°
2026-04-18 04:36 19.22365 -23.35569 38997 ft 455 kts 31°
2026-04-18 04:36 19.27756 -23.32137 39004 ft 455 kts 31°
2026-04-18 04:37 19.33191 -23.28675 38997 ft 455 kts 31°
2026-04-18 04:37 19.38617 -23.25216 38997 ft 455 kts 31°
2026-04-18 04:38 19.44007 -23.21778 39000 ft 455 kts 31°
2026-04-18 04:38 19.49431 -23.18315 39007 ft 455 kts 31°
2026-04-18 04:39 19.54864 -23.14843 38999 ft 455 kts 31°
2026-04-18 04:39 19.60287 -23.11375 38997 ft 455 kts 31°
2026-04-18 04:40 19.65674 -23.07928 38999 ft 455 kts 31°
2026-04-18 04:40 19.71096 -23.04455 38999 ft 455 kts 31°
2026-04-18 04:41 19.76527 -23.00974 39001 ft 455 kts 31°
2026-04-18 04:41 19.81947 -22.97496 39003 ft 455 kts 31°
2026-04-18 04:42 19.87331 -22.94040 38997 ft 455 kts 31°
2026-04-18 04:42 19.92750 -22.90558 38997 ft 455 kts 32°
2026-04-18 04:43 19.98169 -22.87073 39008 ft 455 kts 32°
2026-04-18 04:43 20.03596 -22.83580 39003 ft 455 kts 32°
2026-04-18 04:44 20.08977 -22.80114 39000 ft 455 kts 32°
2026-04-18 04:44 20.14393 -22.76622 39001 ft 455 kts 32°
2026-04-18 04:45 20.19809 -22.73128 38999 ft 455 kts 32°
2026-04-18 04:45 20.25233 -22.69625 39004 ft 455 kts 32°
2026-04-18 04:46 20.30612 -22.66150 39000 ft 455 kts 32°
2026-04-18 04:46 20.36026 -22.62648 38997 ft 455 kts 32°
2026-04-18 04:47 20.41439 -22.59144 39001 ft 455 kts 32°
2026-04-18 04:47 20.46851 -22.55638 39002 ft 455 kts 32°
2026-04-18 04:48 20.52263 -22.52129 38997 ft 455 kts 32°
2026-04-18 04:48 20.57647 -22.48635 38999 ft 455 kts 32°
2026-04-18 04:49 20.63057 -22.45121 39002 ft 455 kts 32°
2026-04-18 04:49 20.68466 -22.41605 39001 ft 455 kts 32°
2026-04-18 04:50 20.73875 -22.38086 39000 ft 455 kts 32°
2026-04-18 04:50 20.79256 -22.34582 38999 ft 455 kts 32°
2026-04-18 04:51 20.84663 -22.31058 38997 ft 455 kts 32°
2026-04-18 04:51 20.90070 -22.27532 39001 ft 455 kts 32°
2026-04-18 04:52 20.95476 -22.24003 38997 ft 455 kts 32°
2026-04-18 04:52 21.00854 -22.20489 38999 ft 455 kts 32°
2026-04-18 04:53 21.06258 -22.16955 38998 ft 455 kts 32°
2026-04-18 04:53 21.11662 -22.13419 39002 ft 455 kts 32°
2026-04-18 04:54 21.17029 -22.09903 39002 ft 455 kts 32°
2026-04-18 04:54 21.22431 -22.06362 39003 ft 455 kts 32°
2026-04-18 04:55 21.27842 -22.02812 39003 ft 455 kts 32°
2026-04-18 04:55 21.33244 -21.99266 39008 ft 455 kts 32°
2026-04-18 04:56 21.41311 -21.93961 39000 ft 455 kts 32°
2026-04-18 04:56 21.46709 -21.90406 39000 ft 455 kts 32°
2026-04-18 04:57 21.52112 -21.86847 38997 ft 455 kts 32°
2026-04-18 04:57 21.57509 -21.83288 38997 ft 455 kts 32°
2026-04-18 04:58 21.62870 -21.79750 39001 ft 455 kts 32°
2026-04-18 04:58 21.68275 -21.76180 39004 ft 455 kts 32°
2026-04-18 04:59 21.73668 -21.72610 38998 ft 455 kts 32°
2026-04-18 04:59 21.79060 -21.69038 39001 ft 455 kts 32°
2026-04-18 05:00 21.84417 -21.65489 39000 ft 455 kts 32°
2026-04-18 05:00 21.89819 -21.61908 38997 ft 455 kts 32°
2026-04-18 05:01 21.95212 -21.58330 39000 ft 455 kts 32°
2026-04-18 05:01 22.00603 -21.54750 39001 ft 455 kts 32°
2026-04-18 05:02 22.05958 -21.51191 38998 ft 455 kts 32°
2026-04-18 05:02 22.11348 -21.47606 38997 ft 455 kts 32°
2026-04-18 05:03 22.16745 -21.44011 39000 ft 455 kts 32°
2026-04-18 05:03 22.22098 -21.40444 39001 ft 455 kts 32°
2026-04-18 05:04 22.27485 -21.36851 38997 ft 455 kts 32°
2026-04-18 05:04 22.32871 -21.33253 38997 ft 455 kts 32°
2026-04-18 05:05 22.38255 -21.29652 38998 ft 455 kts 32°
2026-04-18 05:05 22.43613 -21.26068 38997 ft 455 kts 32°
2026-04-18 05:06 22.48998 -21.22463 38997 ft 455 kts 32°
2026-04-18 05:06 22.54382 -21.18856 38998 ft 455 kts 32°
2026-04-18 05:07 22.59765 -21.15246 39006 ft 455 kts 32°
2026-04-18 05:07 22.65120 -21.11651 39000 ft 455 kts 32°
2026-04-18 05:08 22.70502 -21.08035 39004 ft 455 kts 32°
2026-04-18 05:08 22.75883 -21.04416 38999 ft 455 kts 32°
2026-04-18 05:09 22.81262 -21.00794 38997 ft 455 kts 32°
2026-04-18 05:09 22.86615 -20.97188 38998 ft 455 kts 32°
2026-04-18 05:10 22.91993 -20.93560 39002 ft 455 kts 32°
2026-04-18 05:10 22.97371 -20.89929 38997 ft 455 kts 32°
2026-04-18 05:11 23.02747 -20.86296 38998 ft 455 kts 32°
2026-04-18 05:11 23.08132 -20.82654 39000 ft 455 kts 32°
2026-04-18 05:12 23.13471 -20.79038 39001 ft 455 kts 32°
2026-04-18 05:12 23.18845 -20.75395 39001 ft 455 kts 32°
2026-04-18 05:13 23.24218 -20.71751 39000 ft 455 kts 32°
2026-04-18 05:13 23.29590 -20.68103 39003 ft 455 kts 32°
2026-04-18 05:14 23.34935 -20.64471 38998 ft 455 kts 32°
2026-04-18 05:14 23.40305 -20.60817 39000 ft 455 kts 32°
2026-04-18 05:15 23.45675 -20.57160 39003 ft 455 kts 32°
2026-04-18 05:15 23.51043 -20.53500 39000 ft 455 kts 32°
2026-04-18 05:16 23.56375 -20.49862 39001 ft 455 kts 32°
2026-04-18 05:16 23.61751 -20.46191 39000 ft 455 kts 32°
2026-04-18 05:17 23.67117 -20.42522 39002 ft 455 kts 32°
2026-04-18 05:17 23.72482 -20.38851 39000 ft 455 kts 32°
2026-04-18 05:18 23.77810 -20.35201 38998 ft 455 kts 32°
2026-04-18 05:18 23.83182 -20.31517 39002 ft 455 kts 32°
2026-04-18 05:19 23.88544 -20.27836 39001 ft 455 kts 32°
2026-04-18 05:19 23.93906 -20.24153 39000 ft 455 kts 32°
2026-04-18 05:20 23.99231 -20.20491 39000 ft 455 kts 32°
2026-04-18 05:20 24.04600 -20.16795 39001 ft 455 kts 32°
2026-04-18 05:21 24.09960 -20.13101 39002 ft 455 kts 32°
2026-04-18 05:21 24.15282 -20.09429 39000 ft 455 kts 33°
2026-04-18 05:22 24.20639 -20.05730 38999 ft 455 kts 33°
2026-04-18 05:22 24.25995 -20.02028 38997 ft 455 kts 33°
2026-04-18 05:23 24.31360 -19.98317 39004 ft 455 kts 33°
2026-04-18 05:23 24.36678 -19.94633 38998 ft 455 kts 33°
2026-04-18 05:24 24.42031 -19.90922 39000 ft 455 kts 33°
2026-04-18 05:24 24.47384 -19.87207 38997 ft 455 kts 33°
2026-04-18 05:25 24.52744 -19.83484 39000 ft 455 kts 33°
2026-04-18 05:25 24.58095 -19.79763 38999 ft 455 kts 33°
2026-04-18 05:26 24.63409 -19.76064 39001 ft 455 kts 33°
2026-04-18 05:26 24.68757 -19.72336 39005 ft 455 kts 33°
2026-04-18 05:27 24.74105 -19.68605 39000 ft 455 kts 33°
2026-04-18 05:27 24.79460 -19.64865 39001 ft 455 kts 33°
2026-04-18 05:28 24.84769 -19.61151 38998 ft 455 kts 33°
2026-04-18 05:28 24.90113 -19.57409 38997 ft 455 kts 33°
2026-04-18 05:29 24.95457 -19.53666 39004 ft 455 kts 33°
2026-04-18 05:29 25.00800 -19.49921 38999 ft 455 kts 33°
2026-04-18 05:30 25.06115 -19.46189 39001 ft 455 kts 33°
2026-04-18 05:30 25.11455 -19.42434 39002 ft 455 kts 33°
2026-04-18 05:31 25.16795 -19.38677 38998 ft 455 kts 33°
2026-04-18 05:31 25.22133 -19.34917 39003 ft 455 kts 33°
2026-04-18 05:32 25.27480 -19.31147 39000 ft 455 kts 33°
2026-04-18 05:32 25.32781 -19.27405 38997 ft 455 kts 33°
2026-04-18 05:33 25.38117 -19.23634 39004 ft 455 kts 33°
2026-04-18 05:33 25.43452 -19.19861 38997 ft 455 kts 33°
2026-04-18 05:34 25.48786 -19.16084 38997 ft 455 kts 33°
2026-04-18 05:34 25.54092 -19.12322 38997 ft 455 kts 33°
2026-04-18 05:35 25.59424 -19.08538 38997 ft 455 kts 33°
2026-04-18 05:35 25.64755 -19.04751 38999 ft 455 kts 33°
2026-04-18 05:36 25.70085 -19.00961 38998 ft 455 kts 33°
2026-04-18 05:36 25.75423 -18.97161 39006 ft 455 kts 33°
2026-04-18 05:37 25.80715 -18.93389 39005 ft 455 kts 33°
2026-04-18 05:37 25.86042 -18.89588 38998 ft 455 kts 33°
2026-04-18 05:38 25.91368 -18.85784 38998 ft 455 kts 33°
2026-04-18 05:38 25.96701 -18.81970 38998 ft 455 kts 33°
2026-04-18 05:39 26.01990 -18.78184 38998 ft 455 kts 33°
2026-04-18 05:39 26.07312 -18.74369 39002 ft 455 kts 33°
2026-04-18 05:40 26.12634 -18.70552 38998 ft 455 kts 33°
2026-04-18 05:40 26.17955 -18.66731 38998 ft 455 kts 33°
2026-04-18 05:41 26.23249 -18.62926 38997 ft 455 kts 33°
2026-04-18 05:41 26.28568 -18.59097 38998 ft 455 kts 33°
2026-04-18 05:42 26.33885 -18.55266 39001 ft 455 kts 33°
2026-04-18 05:42 26.39211 -18.51424 39005 ft 455 kts 33°
2026-04-18 05:43 26.44527 -18.47585 39001 ft 455 kts 33°
2026-04-18 05:43 26.49806 -18.43768 38997 ft 455 kts 33°
2026-04-18 05:44 26.55120 -18.39923 38998 ft 455 kts 33°
2026-04-18 05:44 26.60432 -18.36073 38997 ft 455 kts 33°
2026-04-18 05:45 26.65753 -18.32214 39000 ft 455 kts 33°
2026-04-18 05:45 26.71028 -18.28383 39006 ft 455 kts 33°
2026-04-18 05:46 26.76337 -18.24523 39001 ft 455 kts 33°
2026-04-18 05:46 26.81646 -18.20659 38998 ft 455 kts 33°
2026-04-18 05:47 26.86962 -18.16785 38998 ft 455 kts 33°
2026-04-18 05:47 26.92268 -18.12914 39001 ft 455 kts 33°
2026-04-18 05:48 26.97538 -18.09065 38998 ft 455 kts 33°
2026-04-18 05:48 27.02842 -18.05187 39003 ft 455 kts 33°
2026-04-18 05:49 27.08154 -18.01298 39001 ft 455 kts 33°
2026-04-18 05:49 27.13455 -17.97410 39000 ft 455 kts 33°
2026-04-18 05:50 27.18720 -17.93546 39000 ft 455 kts 33°
2026-04-18 05:50 27.24020 -17.89653 38999 ft 455 kts 33°
2026-04-18 05:51 27.29328 -17.85750 39004 ft 455 kts 34°
2026-04-18 05:51 27.34591 -17.81876 39000 ft 455 kts 34°
2026-04-18 05:52 27.39888 -17.77972 38997 ft 455 kts 34°
2026-04-18 05:52 27.45183 -17.74063 38999 ft 455 kts 34°
2026-04-18 05:53 27.50476 -17.70149 38998 ft 455 kts 34°
2026-04-18 05:53 27.55743 -17.66253 38997 ft 455 kts 34°
2026-04-18 05:54 27.61036 -17.62333 38999 ft 455 kts 34°
2026-04-18 05:54 27.66327 -17.58411 38998 ft 455 kts 34°
2026-04-18 05:55 27.71617 -17.54484 39001 ft 455 kts 34°
2026-04-18 05:55 27.76880 -17.50573 39003 ft 455 kts 34°
2026-04-18 05:56 27.82168 -17.46639 39012 ft 455 kts 34°
2026-04-18 05:56 27.87456 -17.42701 39007 ft 455 kts 34°
2026-04-18 05:57 27.95389 -17.36784 38998 ft 455 kts 34°
2026-04-18 05:58 28.00856 -17.33187 39001 ft 455 kts 26°
2026-04-18 05:58 28.06734 -17.30673 38997 ft 456 kts 18°
2026-04-18 05:59 28.12815 -17.28495 39004 ft 462 kts 18°
2026-04-18 05:59 28.18923 -17.26286 38998 ft 456 kts 18°
2026-04-18 06:00 28.24943 -17.24084 39006 ft 455 kts 18°
2026-04-18 06:00 28.30928 -17.21883 38996 ft 455 kts 18°
2026-04-18 06:01 28.36951 -17.19665 39000 ft 455 kts 18°
2026-04-18 06:01 28.42984 -17.17440 39000 ft 455 kts 18°
2026-04-18 06:02 28.49008 -17.15216 39002 ft 455 kts 18°
2026-04-18 06:02 28.55031 -17.12989 38999 ft 455 kts 18°
2026-04-18 06:03 28.61014 -17.10774 38998 ft 455 kts 18°
2026-04-18 06:03 28.67047 -17.08536 38999 ft 455 kts 18°
2026-04-18 06:04 28.73070 -17.06299 38999 ft 455 kts 18°
2026-04-18 06:04 28.79092 -17.04059 39000 ft 455 kts 18°
2026-04-18 06:05 28.85074 -17.01831 38999 ft 455 kts 18°
2026-04-18 06:05 28.91106 -16.99581 39000 ft 455 kts 18°
2026-04-18 06:06 28.97127 -16.97333 39000 ft 455 kts 18°
2026-04-18 06:06 29.03146 -16.95081 38996 ft 455 kts 18°
2026-04-18 06:07 29.09125 -16.92843 39000 ft 455 kts 18°
2026-04-18 06:07 29.15143 -16.90586 38999 ft 455 kts 18°
2026-04-18 06:08 29.21160 -16.88327 38999 ft 455 kts 18°
2026-04-18 06:08 29.27187 -16.86061 38998 ft 455 kts 18°
2026-04-18 06:09 29.33163 -16.83812 38999 ft 455 kts 18°
2026-04-18 06:09 29.39178 -16.81545 38997 ft 455 kts 18°
2026-04-18 06:10 29.45193 -16.79274 39000 ft 455 kts 18°
2026-04-18 06:10 29.51218 -16.76998 38999 ft 455 kts 18°
2026-04-18 06:11 29.57192 -16.74737 38998 ft 455 kts 18°
2026-04-18 06:11 29.63206 -16.72459 38998 ft 455 kts 18°
2026-04-18 06:12 29.69219 -16.70177 39000 ft 455 kts 18°
2026-04-18 06:12 29.75242 -16.67890 39000 ft 455 kts 18°
2026-04-18 06:13 29.81255 -16.65603 39005 ft 455 kts 18°
2026-04-18 06:13 29.87227 -16.63328 38999 ft 455 kts 18°
2026-04-18 06:14 29.93239 -16.61035 38997 ft 455 kts 18°
2026-04-18 06:14 29.99261 -16.58736 38996 ft 455 kts 18°
2026-04-18 06:15 30.05272 -16.56438 39000 ft 455 kts 18°
2026-04-18 06:15 30.11243 -16.54152 39004 ft 455 kts 18°
2026-04-18 06:16 30.17254 -16.51848 38998 ft 455 kts 18°
2026-04-18 06:16 30.23274 -16.49538 38997 ft 455 kts 18°
2026-04-18 06:17 30.29284 -16.47228 38996 ft 455 kts 18°
2026-04-18 06:17 30.35293 -16.44917 39004 ft 455 kts 18°
2026-04-18 06:18 30.41262 -16.42617 38998 ft 455 kts 18°
2026-04-18 06:18 30.47271 -16.40298 39007 ft 455 kts 18°
2026-04-18 06:19 30.53289 -16.37974 39005 ft 455 kts 18°
2026-04-18 06:19 30.59297 -16.35651 39008 ft 455 kts 18°
2026-04-18 06:20 30.65265 -16.33340 39001 ft 455 kts 18°
2026-04-18 06:20 30.71272 -16.31011 38998 ft 455 kts 18°
2026-04-18 06:21 30.77289 -16.28675 39000 ft 455 kts 18°
2026-04-18 06:21 30.83295 -16.26340 38999 ft 455 kts 18°
2026-04-18 06:22 30.89262 -16.24018 39004 ft 455 kts 18°
2026-04-18 06:22 30.95267 -16.21677 38999 ft 455 kts 18°
2026-04-18 06:23 31.01272 -16.19333 39003 ft 455 kts 18°
2026-04-18 06:23 31.07287 -16.16982 38996 ft 455 kts 18°
2026-04-18 06:24 31.13251 -16.14648 39000 ft 455 kts 18°
2026-04-18 06:24 31.19255 -16.12296 39006 ft 455 kts 18°
2026-04-18 06:25 31.25259 -16.09940 39006 ft 455 kts 18°
2026-04-18 06:25 31.31262 -16.07581 38996 ft 455 kts 18°
2026-04-18 06:26 31.37274 -16.05216 38998 ft 455 kts 18°
2026-04-18 06:26 31.43130 -16.02545 38999 ft 455 kts 25°
2026-04-18 06:27 31.48626 -15.98876 39001 ft 455 kts 31°
2026-04-18 06:27 31.54025 -15.95002 39000 ft 455 kts 31°
2026-04-18 06:28 31.59447 -15.91142 39001 ft 455 kts 31°
2026-04-18 06:28 31.64832 -15.87327 39001 ft 455 kts 31°
2026-04-18 06:29 31.70254 -15.83485 39000 ft 455 kts 31°
2026-04-18 06:29 31.75674 -15.79638 38998 ft 455 kts 31°
2026-04-18 06:30 31.81101 -15.75780 38998 ft 455 kts 31°
2026-04-18 06:30 31.86481 -15.71949 39000 ft 455 kts 31°
2026-04-18 06:31 31.91896 -15.68089 38997 ft 455 kts 31°
2026-04-18 06:31 31.97310 -15.64225 39000 ft 455 kts 31°
2026-04-18 06:32 32.02722 -15.60357 38999 ft 455 kts 31°
2026-04-18 06:32 32.08142 -15.56478 39006 ft 455 kts 31°
2026-04-18 06:33 32.13516 -15.52627 38996 ft 455 kts 31°
2026-04-18 06:33 32.18924 -15.48745 39004 ft 455 kts 31°
2026-04-18 06:34 32.24332 -15.44860 39001 ft 455 kts 31°
2026-04-18 06:34 32.29746 -15.40961 38999 ft 455 kts 31°
2026-04-18 06:35 32.34234 -15.37727 39007 ft 455 kts 31°
2026-04-18 06:35 32.40519 -15.33192 38999 ft 455 kts 31°
2026-04-18 06:36 32.45923 -15.29288 39006 ft 455 kts 31°
2026-04-18 06:36 32.51325 -15.25380 38996 ft 455 kts 31°
2026-04-18 06:37 32.55818 -15.22125 38997 ft 455 kts 32°
2026-04-18 06:37 32.62098 -15.17568 39001 ft 455 kts 32°
2026-04-18 06:38 32.67497 -15.13646 38999 ft 455 kts 32°
2026-04-18 06:38 32.71987 -15.10379 38999 ft 455 kts 32°
2026-04-18 06:39 32.78255 -15.05812 38997 ft 455 kts 32°
2026-04-18 06:39 32.83659 -15.01869 39000 ft 455 kts 32°
2026-04-18 06:40 32.89053 -14.97927 38997 ft 455 kts 32°
2026-04-18 06:40 32.93540 -14.94644 39000 ft 455 kts 32°
2026-04-18 06:41 32.99802 -14.90055 39000 ft 455 kts 32°
2026-04-18 06:41 33.04323 -14.86738 39000 ft 455 kts 32°
2026-04-18 06:42 33.09676 -14.82804 38997 ft 455 kts 32°
2026-04-18 06:42 33.15074 -14.78832 39001 ft 455 kts 32°
2026-04-18 06:43 33.21330 -14.74221 39000 ft 455 kts 32°
2026-04-18 06:43 33.25846 -14.70887 39008 ft 455 kts 32°
2026-04-18 06:44 33.31197 -14.66933 38997 ft 455 kts 32°
2026-04-18 06:44 33.36589 -14.62941 39003 ft 455 kts 32°
2026-04-18 06:45 33.41972 -14.58952 38997 ft 455 kts 32°
2026-04-18 06:45 33.47352 -14.54957 39007 ft 455 kts 32°
2026-04-18 06:46 33.52696 -14.50984 38997 ft 455 kts 32°
2026-04-18 06:46 33.58075 -14.46980 39001 ft 455 kts 32°
2026-04-18 06:47 33.63461 -14.42963 38997 ft 455 kts 32°
2026-04-18 06:47 33.68836 -14.38949 39000 ft 455 kts 32°
2026-04-18 06:48 33.74175 -14.34956 38998 ft 455 kts 32°
2026-04-18 06:48 33.79548 -14.30932 38999 ft 455 kts 32°
2026-04-18 06:49 33.84929 -14.26895 39002 ft 455 kts 32°
2026-04-18 06:49 33.90300 -14.22861 38997 ft 455 kts 32°
2026-04-18 06:50 33.95633 -14.18848 38999 ft 455 kts 32°
2026-04-18 06:50 34.01001 -14.14803 39001 ft 455 kts 32°
2026-04-18 06:51 34.06377 -14.10746 39001 ft 455 kts 32°
2026-04-18 06:51 34.11742 -14.06691 39005 ft 455 kts 32°
2026-04-18 06:52 34.17070 -14.02658 38999 ft 455 kts 32°
2026-04-18 06:52 34.22433 -13.98593 39000 ft 455 kts 32°
2026-04-18 06:53 34.27803 -13.94516 38998 ft 455 kts 32°
2026-04-18 06:53 34.33163 -13.90440 39001 ft 455 kts 32°
2026-04-18 06:54 34.38486 -13.86386 39002 ft 455 kts 32°
2026-04-18 06:54 34.43843 -13.82300 39000 ft 455 kts 32°
2026-04-18 06:55 34.49199 -13.78209 38997 ft 455 kts 32°
2026-04-18 06:55 34.54562 -13.74105 39000 ft 455 kts 32°
2026-04-18 06:56 34.59880 -13.70031 38997 ft 455 kts 32°
2026-04-18 06:56 34.65232 -13.65923 38997 ft 455 kts 32°
2026-04-18 06:57 34.70582 -13.61811 39002 ft 455 kts 32°
2026-04-18 06:57 34.78609 -13.55629 39001 ft 455 kts 33°
2026-04-18 06:58 34.83965 -13.51497 39000 ft 455 kts 33°
2026-04-18 06:58 34.89275 -13.47393 38997 ft 455 kts 33°
2026-04-18 06:59 34.94619 -13.43257 39000 ft 455 kts 33°
2026-04-18 06:59 34.99961 -13.39115 39001 ft 455 kts 33°
2026-04-18 07:00 35.05302 -13.34968 39000 ft 455 kts 33°
2026-04-18 07:00 35.10615 -13.30836 39002 ft 455 kts 33°
2026-04-18 07:01 35.15954 -13.26678 39000 ft 455 kts 33°
2026-04-18 07:01 35.21291 -13.22515 39002 ft 455 kts 33°
2026-04-18 07:02 35.26626 -13.18346 39000 ft 455 kts 33°
2026-04-18 07:02 35.31925 -13.14199 39002 ft 455 kts 33°
2026-04-18 07:03 35.37266 -13.10012 38997 ft 455 kts 33°
2026-04-18 07:03 35.42598 -13.05826 39002 ft 455 kts 33°
2026-04-18 07:04 35.47930 -13.01633 39001 ft 455 kts 33°
2026-04-18 07:04 35.53222 -12.97464 39000 ft 455 kts 33°
2026-04-18 07:05 35.58548 -12.93260 39006 ft 455 kts 33°
2026-04-18 07:05 35.63882 -12.89045 38999 ft 455 kts 33°
2026-04-18 07:06 35.69206 -12.84832 38998 ft 455 kts 33°
2026-04-18 07:06 35.74493 -12.80641 39003 ft 455 kts 33°
2026-04-18 07:07 35.79815 -12.76417 39000 ft 455 kts 33°
2026-04-18 07:07 35.85135 -12.72187 38997 ft 455 kts 33°
2026-04-18 07:08 35.90462 -12.67945 39000 ft 455 kts 33°
2026-04-18 07:08 35.95745 -12.63734 39000 ft 455 kts 33°
2026-04-18 07:09 36.01062 -12.59490 39001 ft 455 kts 33°
2026-04-18 07:09 36.06105 -12.54774 38998 ft 455 kts 42°
2026-04-18 07:10 36.10517 -12.49154 38997 ft 455 kts 50°
2026-04-18 07:10 36.14645 -12.43292 38997 ft 455 kts 49°
2026-04-18 07:11 36.18830 -12.37420 39001 ft 455 kts 49°
2026-04-18 07:11 36.23031 -12.31560 38999 ft 455 kts 49°
2026-04-18 07:12 36.27241 -12.25690 38998 ft 455 kts 49°
2026-04-18 07:12 36.31441 -12.19821 39006 ft 455 kts 49°
2026-04-18 07:13 36.35611 -12.13984 38998 ft 455 kts 49°
2026-04-18 07:13 36.39806 -12.08100 38999 ft 455 kts 49°
2026-04-18 07:14 36.44004 -12.02199 39005 ft 455 kts 49°
2026-04-18 07:14 36.48193 -11.96301 39004 ft 455 kts 49°
2026-04-18 07:15 36.52379 -11.90396 38999 ft 455 kts 49°
2026-04-18 07:15 36.56534 -11.84524 39013 ft 455 kts 49°
2026-04-18 07:16 36.60713 -11.78606 38999 ft 455 kts 49°
2026-04-18 07:16 36.64897 -11.72671 39003 ft 455 kts 49°
2026-04-18 07:17 36.69050 -11.66770 39002 ft 455 kts 49°
2026-04-18 07:17 36.73213 -11.60842 39000 ft 455 kts 49°
2026-04-18 07:18 36.77381 -11.54898 39000 ft 455 kts 49°
2026-04-18 07:18 36.81552 -11.48937 38999 ft 455 kts 49°
2026-04-18 07:19 36.85685 -11.43020 39000 ft 455 kts 49°
2026-04-18 07:19 36.89843 -11.37057 39009 ft 455 kts 49°
2026-04-18 07:20 36.93998 -11.31087 39013 ft 455 kts 49°
2026-04-18 07:20 36.98149 -11.25111 38999 ft 455 kts 49°
2026-04-18 07:21 37.02277 -11.19158 38999 ft 455 kts 49°
2026-04-18 07:21 37.06423 -11.13169 38999 ft 455 kts 49°
2026-04-18 07:22 37.10565 -11.07173 38999 ft 455 kts 49°
2026-04-18 07:22 37.14704 -11.01171 38999 ft 455 kts 49°
2026-04-18 07:23 37.18820 -10.95192 39003 ft 455 kts 49°
2026-04-18 07:23 37.22953 -10.89177 38999 ft 455 kts 50°
2026-04-18 07:24 37.27083 -10.83156 39012 ft 455 kts 50°
2026-04-18 07:24 37.31209 -10.77128 38999 ft 455 kts 50°
2026-04-18 07:25 37.35340 -10.71083 38999 ft 455 kts 50°
2026-04-18 07:25 37.39434 -10.65081 39007 ft 455 kts 50°
2026-04-18 07:26 37.43552 -10.59033 38998 ft 455 kts 50°
2026-04-18 07:26 37.47665 -10.52978 38999 ft 455 kts 50°
2026-04-18 07:27 37.51775 -10.46915 39010 ft 455 kts 50°
2026-04-18 07:27 37.55856 -10.40888 38999 ft 455 kts 50°
2026-04-18 07:28 37.59968 -10.34803 39000 ft 455 kts 50°
2026-04-18 07:28 37.64070 -10.28722 39002 ft 455 kts 50°
2026-04-18 07:29 37.68169 -10.22635 38999 ft 455 kts 50°
2026-04-18 07:29 37.72267 -10.16543 38998 ft 455 kts 50°
2026-04-18 07:30 37.76342 -10.10476 39003 ft 455 kts 50°
2026-04-18 07:30 37.80436 -10.04373 38999 ft 455 kts 50°
2026-04-18 07:31 37.84472 -9.98352 38999 ft 455 kts 50°
2026-04-18 07:31 37.88414 -9.92467 38999 ft 455 kts 50°
2026-04-18 07:32 37.92235 -9.86098 38998 ft 455 kts 63°
2026-04-18 07:32 37.93387 -9.82414 38998 ft 445 kts 75°
2026-04-18 07:32 37.93841 -9.78655 39006 ft 430 kts 89°
2026-04-18 07:33 37.93568 -9.74971 38995 ft 414 kts 104°
2026-04-18 07:33 37.92561 -9.71628 38998 ft 399 kts 120°
2026-04-18 07:33 37.90914 -9.68874 38746 ft 392 kts 136°
2026-04-18 07:33 37.88726 -9.66787 38039 ft 396 kts 148°
2026-04-18 07:34 37.86355 -9.64978 36936 ft 403 kts 149°
2026-04-18 07:34 37.83908 -9.63136 35669 ft 414 kts 149°
2026-04-18 07:34 37.81408 -9.61263 34501 ft 421 kts 149°
2026-04-18 07:34 37.78949 -9.59423 33992 ft 409 kts 149°
2026-04-18 07:35 37.76532 -9.57619 33333 ft 401 kts 149°
2026-04-18 07:35 37.74149 -9.55844 32577 ft 396 kts 149°
2026-04-18 07:35 37.71783 -9.54085 31820 ft 392 kts 149°
2026-04-18 07:35 37.69442 -9.52348 31081 ft 387 kts 149°
2026-04-18 07:36 37.67138 -9.50640 30314 ft 382 kts 149°
2026-04-18 07:36 37.64852 -9.48949 29537 ft 378 kts 149°
2026-04-18 07:36 37.62604 -9.47288 28769 ft 373 kts 149°
2026-04-18 07:36 37.60381 -9.45649 27986 ft 368 kts 149°
2026-04-18 07:37 37.58342 -9.43787 26901 ft 370 kts 135°
2026-04-18 07:37 37.56780 -9.41172 25324 ft 383 kts 117°
2026-04-18 07:37 37.55861 -9.37959 23513 ft 399 kts 100°
2026-04-18 07:37 37.55746 -9.34463 22168 ft 400 kts 83°
2026-04-18 07:38 37.56431 -9.31100 21035 ft 392 kts 66°
2026-04-18 07:38 37.57824 -9.28204 19889 ft 385 kts 50°
2026-04-18 07:38 37.59814 -9.25999 18681 ft 378 kts 32°
2026-04-18 07:38 37.62195 -9.24711 17489 ft 371 kts 13°
2026-04-18 07:39 37.64710 -9.24452 16308 ft 365 kts 355°
2026-04-18 07:39 37.67200 -9.24822 15061 ft 358 kts 352°
2026-04-18 07:39 37.69670 -9.25037 13835 ft 352 kts 359°
2026-04-18 07:39 37.72073 -9.24841 12892 ft 340 kts
2026-04-18 07:40 37.74338 -9.24353 12289 ft 320 kts 12°
2026-04-18 07:40 37.76425 -9.23746 11970 ft 293 kts 14°
2026-04-18 07:40 37.78314 -9.23152 11642 ft 269 kts 11°
2026-04-18 07:40 37.80106 -9.23019 11269 ft 251 kts
2026-04-18 07:41 37.81796 -9.23019 11016 ft 237 kts
2026-04-18 07:41 37.83413 -9.23006 10760 ft 227 kts
2026-04-18 07:41 37.84962 -9.22969 10505 ft 220 kts
2026-04-18 07:41 37.86472 -9.22913 10251 ft 214 kts
2026-04-18 07:42 37.87940 -9.22849 9997 ft 209 kts
2026-04-18 07:42 37.89380 -9.22785 9816 ft 203 kts
2026-04-18 07:42 37.90757 -9.22723 9674 ft 195 kts
2026-04-18 07:42 37.92075 -9.22664 9540 ft 189 kts
2026-04-18 07:43 37.93388 -9.22614 9250 ft 191 kts
2026-04-18 07:43 37.94722 -9.22577 8997 ft 192 kts
2026-04-18 07:43 37.96059 -9.22553 8776 ft 191 kts
2026-04-18 07:43 37.97381 -9.22541 8557 ft 190 kts
2026-04-18 07:44 37.98703 -9.22538 8340 ft 189 kts
2026-04-18 07:44 38.00014 -9.22544 8127 ft 188 kts
2026-04-18 07:44 38.01326 -9.22558 7911 ft 188 kts
2026-04-18 07:44 38.02630 -9.22577 7706 ft 190 kts 360°
2026-04-18 07:45 38.04003 -9.22597 8019 ft 200 kts
2026-04-18 07:45 38.05332 -9.22582 9118 ft 189 kts
2026-04-18 07:45 38.06747 -9.22523 9128 ft 219 kts
2026-04-18 07:45 38.08428 -9.22320 9041 ft 264 kts
2026-04-18 07:46 38.10307 -9.22101 8910 ft 274 kts
2026-04-18 07:46 38.12221 -9.21937 8785 ft 275 kts
2026-04-18 07:46 38.14133 -9.21820 8659 ft 276 kts
2026-04-18 07:46 38.16054 -9.21738 8534 ft 275 kts
2026-04-18 07:47 38.17963 -9.21667 8408 ft 275 kts
2026-04-18 07:47 38.19852 -9.21601 8287 ft 274 kts
2026-04-18 07:47 38.21755 -9.21538 8159 ft 274 kts
2026-04-18 07:47 38.23663 -9.21481 8030 ft 273 kts
2026-04-18 07:48 38.25560 -9.21438 7907 ft 273 kts
2026-04-18 07:48 38.27460 -9.21374 7764 ft 273 kts
2026-04-18 07:48 38.29338 -9.21303 7474 ft 269 kts
2026-04-18 07:48 38.31203 -9.21234 6922 ft 266 kts
2026-04-18 07:49 38.33015 -9.21170 6385 ft 261 kts
2026-04-18 07:49 38.34855 -9.21105 6077 ft 267 kts
2026-04-18 07:49 38.36708 -9.21041 5737 ft 264 kts
2026-04-18 07:49 38.38538 -9.20979 5405 ft 263 kts
2026-04-18 07:50 38.40371 -9.20916 5085 ft 262 kts
2026-04-18 07:50 38.42181 -9.20854 4757 ft 261 kts
2026-04-18 07:50 38.43997 -9.20792 4425 ft 260 kts
2026-04-18 07:50 38.45784 -9.20731 4088 ft 255 kts
2026-04-18 07:51 38.47570 -9.20670 3928 ft 258 kts
2026-04-18 07:51 38.49334 -9.20609 3897 ft 257 kts
2026-04-18 07:51 38.51123 -9.20547 3899 ft 258 kts
2026-04-18 07:51 38.52917 -9.20558 3898 ft 258 kts 355°
2026-04-18 07:52 38.54655 -9.21069 3898 ft 258 kts 339°
2026-04-18 07:52 38.56293 -9.22014 3898 ft 258 kts 335°
2026-04-18 07:52 38.57875 -9.22974 3894 ft 241 kts 335°
2026-04-18 07:52 38.59396 -9.23468 3894 ft 215 kts
2026-04-18 07:53 38.60745 -9.22969 3905 ft 195 kts 28°
2026-04-18 07:53 38.61967 -9.22157 3890 ft 200 kts 27°
2026-04-18 07:53 38.63245 -9.21514 3793 ft 189 kts 19°
2026-04-18 07:53 38.64410 -9.20925 3707 ft 174 kts 23°
2026-04-18 07:54 38.65483 -9.20346 3517 ft 165 kts 22°
2026-04-18 07:54 38.66517 -9.19798 3243 ft 158 kts 22°
2026-04-18 07:54 38.67522 -9.19262 2928 ft 155 kts 22°
2026-04-18 07:54 38.68504 -9.18737 2635 ft 152 kts 22°
2026-04-18 07:55 38.69475 -9.18219 2335 ft 150 kts 22°
2026-04-18 07:55 38.70436 -9.17705 2002 ft 150 kts 22°
2026-04-18 07:55 38.71387 -9.17196 1682 ft 148 kts 22°
2026-04-18 07:55 38.72313 -9.16700 1354 ft 142 kts 22°
2026-04-18 07:56 38.73234 -9.16206 1114 ft 144 kts 22°
2026-04-18 07:56 38.74150 -9.15717 931 ft 145 kts 22°
2026-04-18 07:56 38.75057 -9.15226 720 ft 141 kts 23°
2026-04-18 07:56 38.75978 -9.14734 515 ft 140 kts 22°
2026-04-18 07:57 38.76871 -9.14257 359 ft 136 kts 22°
2026-04-18 07:57 38.77393 -9.13978 359 ft 30 kts 23°
2026-04-18 07:57 38.77483 -9.13928 354 ft 0 kts 23°
2026-04-18 07:57 38.77540 -9.13897 354 ft 37 kts 23°
2026-04-18 07:58 38.78133 -9.13589 356 ft 43 kts 21°
2026-04-18 07:58 38.78203 -9.13492 357 ft 12 kts 85°
2026-04-18 07:58 38.78142 -9.13414 355 ft 15 kts 168°
2026-04-18 07:59 38.77994 -9.13392 353 ft 27 kts 173°
2026-04-18 07:59 38.77775 -9.13352 359 ft 37 kts 170°
2026-04-18 07:59 38.77504 -9.13297 355 ft 40 kts 171°
2026-04-18 07:59 38.77246 -9.13235 359 ft 34 kts 166°
2026-04-18 08:00 38.77050 -9.13176 353 ft 28 kts 169°
2026-04-18 08:00 38.76872 -9.13129 360 ft 26 kts 169°
2026-04-18 08:00 38.76777 -9.13206 363 ft 16 kts 244°
2026-04-18 08:00 38.76745 -9.13348 358 ft 18 kts 248°
2026-04-18 08:01 38.76665 -9.13478 358 ft 19 kts 235°
2026-04-18 08:01 38.76625 -9.13648 358 ft 20 kts 257°
2026-04-18 08:01 38.76649 -9.13774 360 ft 14 kts 312°
2026-04-18 08:01 38.76736 -9.13805 358 ft 11 kts
2026-04-18 08:02 38.76775 -9.13729 362 ft 10 kts 72°
2026-04-18 08:02 38.76778 -9.13708 358 ft 3 kts 77°
2026-04-18 08:02 38.76779 -9.13700 360 ft 0 kts 77°